Time,TemperatureF,DewpointF,PressureIn,WindDirection,WindDirectionDegrees,WindSpeedMPH,WindSpeedGustMPH,Humidity,HourlyPrecipIn,Conditions,Clouds,dailyrainin,SoftwareType,DateUTC
2013-02-01 00:00:00,30.4,-5.9,29.82,West,270,7.6,7.6,20,87.17,,---,0.00,VWS V14.00,2013-02-01 05:00:00,
2013-02-01 00:02:00,30.4,-5.9,29.82,West,270,10.7,10.7,20,87.17,,---,0.00,VWS V14.00,2013-02-01 05:02:00,
2013-02-01 00:03:00,30.4,-5.9,29.82,West,270,8.7,10.7,20,87.17,,---,0.00,VWS V14.00,2013-02-01 05:03:00,
2013-02-01 00:05:00,30.4,-5.9,29.82,WNW,292,10.1,10.1,20,87.17,,---,0.00,VWS V14.00,2013-02-01 05:05:00,
2013-02-01 00:10:00,30.4,-5.9,29.82,WNW,292,7.6,10.7,20,87.17,,---,0.00,VWS V14.00,2013-02-01 05:10:00,
2013-02-01 00:12:00,30.4,-5.9,29.82,WSW,248,10.1,10.1,20,87.17,,---,0.00,VWS V14.00,2013-02-01 05:12:00,
2013-02-01 00:14:00,30.2,-6.0,29.82,WNW,292,5.6,8.7,20,87.17,,---,0.00,VWS V14.00,2013-02-01 05:14:00,
2013-02-01 00:17:00,30.2,-6.0,29.82,West,270,5.6,7.8,20,87.17,,---,0.00,VWS V14.00,2013-02-01 05:17:00,
2013-02-01 00:20:00,30.2,-6.0,29.82,West,270,7.6,8.7,20,87.17,,---,0.00,VWS V14.00,2013-02-01 05:20:00,
2013-02-01 00:22:00,30.0,-6.2,29.82,West,270,4.0,7.8,20,87.17,,---,0.00,VWS V14.00,2013-02-01 05:22:00,
2013-02-01 00:23:00,30.2,-6.0,29.82,WSW,248,9.6,12.3,20,87.17,,---,0.00,VWS V14.00,2013-02-01 05:23:00,
2013-02-01 00:25:00,30.2,-6.0,29.82,WSW,248,6.0,11.4,20,87.17,,---,0.00,VWS V14.00,2013-02-01 05:25:00,
2013-02-01 00:27:00,30.0,-6.2,29.82,West,270,6.7,10.1,20,87.17,,---,0.00,VWS V14.00,2013-02-01 05:27:00,
2013-02-01 00:32:00,30.0,-6.2,29.82,WSW,248,7.8,8.1,20,87.17,,---,0.00,VWS V14.00,2013-02-01 05:32:00,
2013-02-01 00:33:00,30.0,-6.2,29.82,West,270,9.4,11.4,20,87.17,,---,0.00,VWS V14.00,2013-02-01 05:33:00,
2013-02-01 00:36:00,30.0,-6.2,29.82,WNW,292,7.6,10.7,20,87.17,,---,0.00,VWS V14.00,2013-02-01 05:36:00,
2013-02-01 00:38:00,30.0,-6.2,29.82,WSW,248,6.0,10.1,20,87.17,,---,0.00,VWS V14.00,2013-02-01 05:38:00,
2013-02-01 00:40:00,30.0,-6.2,29.82,WSW,248,6.3,16.6,20,87.17,,---,0.00,VWS V14.00,2013-02-01 05:40:00,
2013-02-01 00:42:00,29.8,-6.3,29.82,WSW,248,7.6,7.6,20,87.17,,---,0.00,VWS V14.00,2013-02-01 05:42:00,
2013-02-01 00:45:00,29.8,-6.3,29.82,WSW,248,6.0,8.5,20,87.17,,---,0.00,VWS V14.00,2013-02-01 05:45:00,
2013-02-01 00:48:00,29.8,-6.3,29.82,WNW,292,7.6,8.1,20,87.17,,---,0.00,VWS V14.00,2013-02-01 05:48:00,
2013-02-01 00:51:00,29.7,-6.5,29.85,WSW,248,2.7,3.8,20,87.17,,---,0.00,VWS V14.00,2013-02-01 05:51:00,
2013-02-01 00:52:00,29.7,-6.5,29.85,WNW,292,4.9,7.8,20,87.17,,---,0.00,VWS V14.00,2013-02-01 05:52:00,
2013-02-01 00:53:00,29.7,-6.5,29.85,WSW,248,7.4,9.8,20,87.17,,---,0.00,VWS V14.00,2013-02-01 05:53:00,
2013-02-01 00:57:00,29.7,-6.5,29.85,WSW,248,6.0,10.3,20,87.17,,---,0.00,VWS V14.00,2013-02-01 05:57:00,
2013-02-01 00:58:00,29.7,-6.5,29.85,WSW,248,7.6,7.6,20,87.17,,---,0.00,VWS V14.00,2013-02-01 05:58:00,
2013-02-01 00:59:00,29.7,-6.5,29.85,West,270,7.8,10.1,20,87.17,,---,0.00,VWS V14.00,2013-02-01 05:59:00,
2013-02-01 01:00:00,29.7,-6.5,29.85,West,270,5.4,7.8,20,87.17,,---,0.00,VWS V14.00,2013-02-01 06:00:00,
2013-02-01 01:05:00,29.5,-6.6,29.85,West,270,4.7,6.0,20,87.17,,---,0.00,VWS V14.00,2013-02-01 06:05:00,
2013-02-01 01:06:00,29.5,-6.6,29.85,West,270,5.6,5.6,20,87.17,,---,0.00,VWS V14.00,2013-02-01 06:06:00,
2013-02-01 01:10:00,29.3,-6.8,29.85,West,270,7.8,8.5,20,87.17,,---,0.00,VWS V14.00,2013-02-01 06:10:00,
2013-02-01 01:12:00,29.5,-6.6,29.85,West,270,8.7,9.4,20,87.17,,---,0.00,VWS V14.00,2013-02-01 06:12:00,
2013-02-01 01:16:00,29.3,-6.8,29.85,WSW,248,4.7,6.5,20,87.17,,---,0.00,VWS V14.00,2013-02-01 06:16:00,
2013-02-01 01:17:00,29.3,-6.8,29.85,West,270,8.7,9.6,20,87.17,,---,0.00,VWS V14.00,2013-02-01 06:17:00,
2013-02-01 01:18:00,29.3,-6.8,29.85,West,270,6.3,8.7,20,87.17,,---,0.00,VWS V14.00,2013-02-01 06:18:00,
2013-02-01 01:20:00,29.3,-6.8,29.85,WSW,248,2.7,11.9,20,87.17,,---,0.00,VWS V14.00,2013-02-01 06:20:00,
2013-02-01 01:24:00,29.3,-6.8,29.85,WSW,248,4.7,8.7,20,87.17,,---,0.00,VWS V14.00,2013-02-01 06:24:00,
2013-02-01 01:25:00,29.3,-6.8,29.85,West,270,4.9,6.0,20,87.17,,---,0.00,VWS V14.00,2013-02-01 06:25:00,
2013-02-01 01:26:00,29.1,-6.9,29.85,WSW,248,10.3,10.5,20,87.17,,---,0.00,VWS V14.00,2013-02-01 06:26:00,
2013-02-01 01:27:00,29.1,-6.9,29.85,WSW,248,3.8,10.3,20,87.17,,---,0.00,VWS V14.00,2013-02-01 06:27:00,
2013-02-01 01:29:00,29.1,-6.9,29.85,SW,225,4.3,4.9,20,87.17,,---,0.00,VWS V14.00,2013-02-01 06:29:00,
2013-02-01 01:33:00,29.1,-6.9,29.85,WSW,248,3.8,8.7,20,87.17,,---,0.00,VWS V14.00,2013-02-01 06:33:00,
2013-02-01 01:34:00,29.1,-6.9,29.85,WSW,248,5.8,7.6,20,87.17,,---,0.00,VWS V14.00,2013-02-01 06:34:00,
2013-02-01 01:36:00,29.1,-6.9,29.85,West,270,9.8,10.3,20,87.17,,---,0.00,VWS V14.00,2013-02-01 06:36:00,
2013-02-01 01:37:00,29.1,-6.9,29.85,WSW,248,7.6,9.8,20,87.17,,---,0.00,VWS V14.00,2013-02-01 06:37:00,
2013-02-01 01:40:00,28.9,-7.1,29.85,WSW,248,3.8,4.9,20,87.17,,---,0.00,VWS V14.00,2013-02-01 06:40:00,
2013-02-01 01:41:00,28.9,-7.1,29.85,WSW,248,2.7,7.8,20,87.17,,---,0.00,VWS V14.00,2013-02-01 06:41:00,
2013-02-01 01:42:00,28.9,-7.1,29.85,WSW,248,11.0,11.0,20,87.17,,---,0.00,VWS V14.00,2013-02-01 06:42:00,
2013-02-01 01:44:00,28.9,-7.1,29.85,WSW,248,3.1,6.5,20,87.17,,---,0.00,VWS V14.00,2013-02-01 06:44:00,
2013-02-01 01:47:00,28.9,-7.1,29.85,West,270,4.0,10.1,20,87.17,,---,0.00,VWS V14.00,2013-02-01 06:47:00,
2013-02-01 01:48:00,29.1,-6.9,29.85,WSW,248,10.7,10.7,20,87.17,,---,0.00,VWS V14.00,2013-02-01 06:48:00,
2013-02-01 01:51:00,29.1,-6.9,29.85,WSW,248,5.8,11.9,20,87.17,,---,0.00,VWS V14.00,2013-02-01 06:51:00,
2013-02-01 01:55:00,29.1,-6.9,29.85,West,270,7.4,7.6,20,87.17,,---,0.00,VWS V14.00,2013-02-01 06:55:00,
2013-02-01 01:56:00,29.1,-6.9,29.85,West,270,5.4,8.5,20,87.17,,---,0.00,VWS V14.00,2013-02-01 06:56:00,
2013-02-01 01:57:00,29.1,-6.9,29.85,West,270,6.5,6.5,20,87.17,,---,0.00,VWS V14.00,2013-02-01 06:57:00,
2013-02-01 02:01:00,29.1,-6.9,29.85,WSW,248,5.6,8.7,20,87.17,,---,0.00,VWS V14.00,2013-02-01 07:01:00,
2013-02-01 02:02:00,28.9,-7.1,29.85,WSW,248,5.8,5.8,20,87.17,,---,0.00,VWS V14.00,2013-02-01 07:02:00,
2013-02-01 02:07:00,28.9,-7.1,29.85,WSW,248,7.8,11.9,20,87.17,,---,0.00,VWS V14.00,2013-02-01 07:07:00,
2013-02-01 02:08:00,28.9,-7.1,29.85,WSW,248,4.3,8.7,20,87.17,,---,0.00,VWS V14.00,2013-02-01 07:08:00,
2013-02-01 02:10:00,28.9,-7.1,29.85,WSW,248,8.1,8.1,20,87.17,,---,0.00,VWS V14.00,2013-02-01 07:10:00,
2013-02-01 02:12:00,28.9,-7.1,29.85,WSW,248,8.7,8.7,20,87.17,,---,0.00,VWS V14.00,2013-02-01 07:12:00,
2013-02-01 02:14:00,28.9,-7.1,29.85,WSW,248,3.4,5.6,20,87.17,,---,0.00,VWS V14.00,2013-02-01 07:14:00,
2013-02-01 02:16:00,28.9,-7.1,29.85,WSW,248,3.1,7.6,20,87.17,,---,0.00,VWS V14.00,2013-02-01 07:16:00,
2013-02-01 02:17:00,28.9,-7.1,29.85,WSW,248,4.3,10.3,20,87.17,,---,0.00,VWS V14.00,2013-02-01 07:17:00,
2013-02-01 02:18:00,28.9,-7.1,29.85,West,270,2.5,5.8,20,87.17,,---,0.00,VWS V14.00,2013-02-01 07:18:00,
2013-02-01 02:23:00,28.8,-7.2,29.82,WSW,248,4.3,4.3,20,87.17,,---,0.00,VWS V14.00,2013-02-01 07:23:00,
2013-02-01 02:24:00,28.8,-7.2,29.82,ESE,112,7.6,7.6,20,87.17,,---,0.00,VWS V14.00,2013-02-01 07:24:00,
2013-02-01 02:27:00,28.6,-7.4,29.82,WSW,248,2.2,5.4,20,87.17,,---,0.00,VWS V14.00,2013-02-01 07:27:00,
2013-02-01 02:29:00,28.6,-7.4,29.82,WSW,248,2.7,3.8,20,87.17,,---,0.00,VWS V14.00,2013-02-01 07:29:00,
2013-02-01 02:31:00,28.6,-7.4,29.82,WSW,248,2.7,5.8,20,87.17,,---,0.00,VWS V14.00,2013-02-01 07:31:00,
2013-02-01 02:35:00,28.4,-6.5,29.82,West,270,4.0,4.9,21,87.17,,---,0.00,VWS V14.00,2013-02-01 07:35:00,
2013-02-01 02:36:00,28.4,-6.5,29.82,WSW,248,1.6,4.9,21,87.17,,---,0.00,VWS V14.00,2013-02-01 07:36:00,
2013-02-01 02:38:00,28.4,-6.5,29.82,WSW,248,3.1,5.4,21,87.17,,---,0.00,VWS V14.00,2013-02-01 07:38:00,
2013-02-01 02:40:00,28.4,-6.5,29.82,WSW,248,2.0,4.9,21,87.17,,---,0.00,VWS V14.00,2013-02-01 07:40:00,
2013-02-01 02:43:00,28.4,-6.5,29.82,WSW,248,0.9,5.4,21,87.17,,---,0.00,VWS V14.00,2013-02-01 07:43:00,
2013-02-01 02:44:00,28.4,-6.5,29.82,WSW,248,4.0,4.3,21,87.17,,---,0.00,VWS V14.00,2013-02-01 07:44:00,
2013-02-01 02:46:00,28.2,-6.7,29.82,WSW,248,5.4,6.0,21,87.17,,---,0.00,VWS V14.00,2013-02-01 07:46:00,
2013-02-01 02:48:00,28.4,-6.5,29.82,WSW,248,2.5,7.8,21,87.17,,---,0.00,VWS V14.00,2013-02-01 07:48:00,
2013-02-01 02:50:00,28.2,-6.7,29.82,WSW,248,2.5,3.8,21,87.17,,---,0.00,VWS V14.00,2013-02-01 07:50:00,
2013-02-01 02:52:00,28.0,-6.8,29.82,WSW,248,4.0,4.0,21,87.17,,---,0.00,VWS V14.00,2013-02-01 07:52:00,
2013-02-01 02:54:00,28.0,-6.8,29.82,WSW,248,3.6,5.8,21,87.17,,---,0.00,VWS V14.00,2013-02-01 07:54:00,
2013-02-01 02:58:00,28.2,-6.7,29.82,WSW,248,7.6,7.6,21,87.17,,---,0.00,VWS V14.00,2013-02-01 07:58:00,
2013-02-01 02:59:00,28.0,-6.8,29.82,WSW,248,2.7,7.6,21,87.17,,---,0.00,VWS V14.00,2013-02-01 07:59:00,
2013-02-01 03:00:00,28.0,-6.8,29.82,WSW,248,2.5,2.7,21,87.17,,---,0.00,VWS V14.00,2013-02-01 08:00:00,
2013-02-01 03:04:00,28.0,-6.8,29.82,SW,225,3.4,3.6,21,87.17,,---,0.00,VWS V14.00,2013-02-01 08:04:00,
2013-02-01 03:05:00,28.0,-6.8,1.45,South,180,6.0,57.5,21,33.30,,---,58.87,VWS V14.00,2013-02-01 08:05:00,
2013-02-01 03:06:00,28.0,-6.8,29.82,WSW,248,2.7,6.0,21,33.30,,---,58.87,VWS V14.00,2013-02-01 08:06:00,
2013-02-01 03:07:00,28.0,-6.8,29.82,WSW,248,5.6,6.5,21,33.30,,---,58.87,VWS V14.00,2013-02-01 08:07:00,
2013-02-01 03:09:00,28.0,-6.8,29.82,SSW,202,4.3,4.9,21,33.30,,---,58.87,VWS V14.00,2013-02-01 08:09:00,
2013-02-01 03:11:00,28.0,-6.8,29.82,West,270,4.9,5.8,21,33.30,,---,58.87,VWS V14.00,2013-02-01 08:11:00,
2013-02-01 03:13:00,28.0,-6.8,29.82,WSW,248,4.3,5.4,21,33.30,,---,58.87,VWS V14.00,2013-02-01 08:13:00,
2013-02-01 03:16:00,28.0,-6.8,29.82,SSW,202,4.9,5.6,21,33.30,,---,58.87,VWS V14.00,2013-02-01 08:16:00,
2013-02-01 03:17:00,28.0,-6.8,29.82,West,270,2.0,6.3,21,33.30,,---,58.87,VWS V14.00,2013-02-01 08:17:00,
2013-02-01 03:19:00,28.0,-6.8,29.82,WSW,248,3.4,3.6,21,33.30,,---,58.87,VWS V14.00,2013-02-01 08:19:00,
2013-02-01 03:23:00,28.2,-6.7,29.85,WSW,248,6.3,7.8,21,33.30,,---,58.87,VWS V14.00,2013-02-01 08:23:00,
2013-02-01 03:24:00,28.2,-6.7,29.85,West,270,10.3,10.3,21,33.30,,---,58.87,VWS V14.00,2013-02-01 08:24:00,
2013-02-01 03:25:00,28.2,-6.7,29.85,WSW,248,5.4,10.3,21,33.30,,---,58.87,VWS V14.00,2013-02-01 08:25:00,
2013-02-01 03:28:00,28.2,-6.7,29.85,WSW,248,3.6,4.9,21,33.30,,---,58.87,VWS V14.00,2013-02-01 08:28:00,
2013-02-01 03:29:00,28.2,-6.7,29.85,West,270,4.0,4.0,21,33.30,,---,58.87,VWS V14.00,2013-02-01 08:29:00,
2013-02-01 03:30:00,28.2,-6.7,29.85,WSW,248,3.6,5.8,21,33.30,,---,58.87,VWS V14.00,2013-02-01 08:30:00,
2013-02-01 03:33:00,28.2,-6.7,29.85,SW,225,3.4,3.4,21,33.30,,---,58.87,VWS V14.00,2013-02-01 08:33:00,
2013-02-01 03:34:00,28.0,-6.8,29.85,WSW,248,5.4,7.6,21,33.30,,---,58.87,VWS V14.00,2013-02-01 08:34:00,
2013-02-01 03:37:00,28.0,-6.8,29.85,SSW,202,4.0,5.4,21,33.30,,---,58.87,VWS V14.00,2013-02-01 08:37:00,
2013-02-01 03:40:00,28.0,-6.8,29.85,WSW,248,4.0,5.4,21,33.30,,---,58.87,VWS V14.00,2013-02-01 08:40:00,
2013-02-01 03:43:00,28.2,-6.7,29.85,WSW,248,4.3,8.1,21,33.30,,---,58.87,VWS V14.00,2013-02-01 08:43:00,
2013-02-01 03:44:00,28.2,-6.7,29.85,SSW,202,5.6,6.0,21,33.30,,---,58.87,VWS V14.00,2013-02-01 08:44:00,
2013-02-01 03:45:00,28.0,-6.8,29.85,WSW,248,4.3,5.6,21,33.30,,---,58.87,VWS V14.00,2013-02-01 08:45:00,
2013-02-01 03:49:00,28.0,-6.8,29.85,WSW,248,2.9,5.6,21,33.30,,---,58.87,VWS V14.00,2013-02-01 08:49:00,
2013-02-01 03:50:00,28.0,-6.8,29.85,WSW,248,2.9,3.6,21,33.30,,---,58.87,VWS V14.00,2013-02-01 08:50:00,
2013-02-01 03:51:00,27.9,-7.0,29.85,WSW,248,3.4,5.4,21,33.30,,---,58.87,VWS V14.00,2013-02-01 08:51:00,
2013-02-01 03:55:00,28.0,-6.8,29.85,West,270,5.8,5.8,21,33.30,,---,58.87,VWS V14.00,2013-02-01 08:55:00,
2013-02-01 03:56:00,28.0,-6.8,29.85,West,270,2.2,5.8,21,33.30,,---,58.87,VWS V14.00,2013-02-01 08:56:00,
2013-02-01 04:00:00,27.9,-7.0,29.85,WSW,248,4.3,10.5,21,33.30,,---,58.87,VWS V14.00,2013-02-01 09:00:00,
2013-02-01 04:01:00,28.0,-6.8,29.85,WSW,248,10.3,10.5,21,33.30,,---,58.87,VWS V14.00,2013-02-01 09:01:00,
2013-02-01 04:02:00,28.0,-6.8,29.85,WSW,248,6.5,10.3,21,33.30,,---,58.87,VWS V14.00,2013-02-01 09:02:00,
2013-02-01 04:04:00,28.0,-6.8,29.85,West,270,3.4,5.8,21,33.30,,---,58.87,VWS V14.00,2013-02-01 09:04:00,
2013-02-01 04:07:00,28.0,-6.8,29.85,WNW,292,3.1,8.5,21,33.30,,---,58.87,VWS V14.00,2013-02-01 09:07:00,
2013-02-01 04:08:00,28.0,-6.8,29.85,WSW,248,12.1,12.1,21,33.30,,---,58.87,VWS V14.00,2013-02-01 09:08:00,
2013-02-01 04:09:00,28.0,-6.8,29.85,WSW,248,4.7,12.1,21,33.30,,---,58.87,VWS V14.00,2013-02-01 09:09:00,
2013-02-01 04:13:00,28.0,-6.8,29.85,West,270,4.9,5.4,21,33.30,,---,38.39,VWS V14.00,2013-02-01 09:13:00,
2013-02-01 04:15:00,28.0,-6.8,29.85,West,270,5.8,5.8,21,33.30,,---,38.39,VWS V14.00,2013-02-01 09:15:00,
2013-02-01 04:17:00,28.2,-6.7,29.85,West,270,4.3,10.3,21,33.30,,---,38.39,VWS V14.00,2013-02-01 09:17:00,
2013-02-01 04:22:00,28.2,-6.7,29.82,WNW,292,5.8,6.3,21,33.30,,---,38.39,VWS V14.00,2013-02-01 09:22:00,
2013-02-01 04:23:00,28.2,-6.7,29.82,WSW,248,6.0,8.1,21,33.30,,---,38.39,VWS V14.00,2013-02-01 09:23:00,
2013-02-01 04:25:00,28.2,-6.7,29.82,WNW,292,4.7,5.6,21,33.30,,---,38.39,VWS V14.00,2013-02-01 09:25:00,
2013-02-01 04:28:00,28.2,-6.7,29.82,WSW,248,5.4,6.3,21,33.30,,---,38.39,VWS V14.00,2013-02-01 09:28:00,
2013-02-01 04:29:00,28.4,-6.5,29.82,WNW,292,4.9,7.8,21,33.30,,---,38.39,VWS V14.00,2013-02-01 09:29:00,
2013-02-01 04:30:00,28.2,-6.7,29.82,WSW,248,2.9,5.4,21,33.30,,---,38.39,VWS V14.00,2013-02-01 09:30:00,
2013-02-01 04:31:00,28.4,-6.5,29.82,WNW,292,5.6,6.5,21,33.30,,---,38.39,VWS V14.00,2013-02-01 09:31:00,
2013-02-01 04:33:00,28.4,-6.5,29.82,West,270,7.4,7.4,21,33.30,,---,38.39,VWS V14.00,2013-02-01 09:33:00,
2013-02-01 04:36:00,28.2,-6.7,29.85,WSW,248,6.7,6.7,21,33.30,,---,38.39,VWS V14.00,2013-02-01 09:36:00,
2013-02-01 04:37:00,28.2,-6.7,29.85,West,270,6.9,6.9,21,33.30,,---,38.39,VWS V14.00,2013-02-01 09:37:00,
2013-02-01 04:38:00,28.2,-6.7,29.85,WSW,248,2.7,6.9,21,33.30,,---,38.39,VWS V14.00,2013-02-01 09:38:00,
2013-02-01 04:40:00,28.2,-6.7,29.85,West,270,8.5,8.5,21,33.30,,---,38.39,VWS V14.00,2013-02-01 09:40:00,
2013-02-01 04:42:00,28.2,-6.7,29.85,WSW,248,6.3,6.3,21,33.30,,---,38.39,VWS V14.00,2013-02-01 09:42:00,
2013-02-01 04:44:00,28.2,-6.7,29.85,WSW,248,2.0,5.8,21,33.30,,---,38.39,VWS V14.00,2013-02-01 09:44:00,
2013-02-01 04:46:00,28.0,-6.8,29.85,WSW,248,6.0,6.0,21,33.30,,---,38.39,VWS V14.00,2013-02-01 09:46:00,
2013-02-01 04:49:00,28.2,-6.7,29.85,WSW,248,3.6,4.7,21,33.30,,---,38.39,VWS V14.00,2013-02-01 09:49:00,
2013-02-01 04:52:00,28.0,-6.8,29.85,WSW,248,3.8,4.3,21,33.30,,---,38.39,VWS V14.00,2013-02-01 09:52:00,
2013-02-01 04:54:00,28.0,-6.8,29.85,West,270,3.4,3.8,21,33.30,,---,38.39,VWS V14.00,2013-02-01 09:54:00,
2013-02-01 04:55:00,28.0,-6.8,29.85,West,270,2.2,3.4,21,33.30,,---,38.39,VWS V14.00,2013-02-01 09:55:00,
2013-02-01 04:59:00,28.0,-6.8,29.85,WSW,248,2.2,3.8,21,33.30,,---,38.39,VWS V14.00,2013-02-01 09:59:00,
2013-02-01 05:00:00,28.0,-6.8,29.85,WSW,248,3.4,6.5,21,33.30,,---,38.39,VWS V14.00,2013-02-01 10:00:00,
2013-02-01 05:01:00,28.0,-6.8,29.85,WSW,248,3.4,3.4,21,33.30,,---,38.39,VWS V14.00,2013-02-01 10:01:00,
2013-02-01 05:06:00,28.2,-6.7,29.85,WSW,248,3.1,3.1,21,0.00,,---,0.00,VWS V14.00,2013-02-01 10:06:00,
2013-02-01 05:08:00,28.4,-6.5,29.85,WSW,248,3.4,6.5,21,0.00,,---,0.00,VWS V14.00,2013-02-01 10:08:00,
2013-02-01 05:11:00,28.4,-6.5,29.85,West,270,3.1,4.0,21,0.00,,---,0.00,VWS V14.00,2013-02-01 10:11:00,
2013-02-01 05:15:00,28.4,-6.5,29.85,West,270,3.4,4.0,21,0.00,,---,0.00,VWS V14.00,2013-02-01 10:15:00,
2013-02-01 05:17:00,28.4,-6.5,29.85,West,270,2.0,4.3,21,0.00,,---,0.00,VWS V14.00,2013-02-01 10:17:00,
2013-02-01 05:22:00,28.4,-6.5,29.82,WSW,248,5.4,5.4,21,0.00,,---,0.00,VWS V14.00,2013-02-01 10:22:00,
2013-02-01 05:26:00,28.4,-6.5,29.82,WSW,248,2.7,3.6,21,0.00,,---,0.00,VWS V14.00,2013-02-01 10:26:00,
2013-02-01 05:27:00,28.4,-6.5,29.82,WSW,248,3.4,3.4,21,0.00,,---,0.00,VWS V14.00,2013-02-01 10:27:00,
2013-02-01 05:31:00,28.4,-6.5,29.82,WSW,248,3.8,5.4,21,0.00,,---,0.00,VWS V14.00,2013-02-01 10:31:00,
2013-02-01 05:32:00,28.4,-6.5,29.82,WSW,248,2.9,4.0,21,0.00,,---,0.00,VWS V14.00,2013-02-01 10:32:00,
2013-02-01 05:38:00,28.4,-6.5,29.85,WSW,248,3.8,5.6,21,0.00,,---,0.00,VWS V14.00,2013-02-01 10:38:00,
2013-02-01 05:39:00,28.4,-6.5,29.85,WSW,248,2.7,3.8,21,0.00,,---,0.00,VWS V14.00,2013-02-01 10:39:00,
2013-02-01 05:43:00,28.6,-7.4,29.85,WSW,248,4.3,6.0,20,0.00,,---,0.00,VWS V14.00,2013-02-01 10:43:00,
2013-02-01 05:44:00,28.6,-7.4,29.85,WSW,248,2.7,4.3,20,0.00,,---,0.00,VWS V14.00,2013-02-01 10:44:00,
2013-02-01 05:45:00,28.6,-7.4,29.85,West,270,2.0,6.0,20,0.00,,---,0.00,VWS V14.00,2013-02-01 10:45:00,
2013-02-01 05:49:00,28.6,-7.4,29.85,WSW,248,4.3,4.3,20,0.00,,---,0.00,VWS V14.00,2013-02-01 10:49:00,
2013-02-01 05:50:00,28.6,-7.4,29.85,WSW,248,4.7,4.7,20,0.00,,---,0.00,VWS V14.00,2013-02-01 10:50:00,
2013-02-01 05:52:00,28.8,-7.2,29.85,WSW,248,4.9,5.8,20,0.00,,---,0.00,VWS V14.00,2013-02-01 10:52:00,
2013-02-01 05:55:00,28.6,-7.4,29.85,WNW,292,2.5,4.9,20,0.00,,---,0.00,VWS V14.00,2013-02-01 10:55:00,
2013-02-01 05:56:00,28.6,-7.4,29.85,West,270,4.0,4.0,20,0.00,,---,0.00,VWS V14.00,2013-02-01 10:56:00,
2013-02-01 06:00:00,28.6,-7.4,29.85,West,270,3.1,5.6,20,0.00,,---,0.00,VWS V14.00,2013-02-01 11:00:00,
2013-02-01 06:01:00,28.6,-7.4,29.85,West,270,2.2,3.1,20,0.00,,---,0.00,VWS V14.00,2013-02-01 11:01:00,
2013-02-01 06:04:00,28.6,-7.4,29.85,West,270,1.3,2.0,20,0.00,,---,0.00,VWS V14.00,2013-02-01 11:04:00,
2013-02-01 06:07:00,28.6,-7.4,29.85,WSW,248,3.6,3.8,20,0.00,,---,0.00,VWS V14.00,2013-02-01 11:07:00,
2013-02-01 06:08:00,28.6,-7.4,29.85,WSW,248,3.1,5.8,20,0.00,,---,0.00,VWS V14.00,2013-02-01 11:08:00,
2013-02-01 06:12:00,28.8,-7.2,29.85,WSW,248,3.6,5.8,20,0.00,,---,0.00,VWS V14.00,2013-02-01 11:12:00,
2013-02-01 06:15:00,28.8,-7.2,29.85,West,270,2.0,4.0,20,0.00,,---,0.00,VWS V14.00,2013-02-01 11:15:00,
2013-02-01 06:18:00,28.9,-7.1,29.85,WSW,248,6.5,6.5,20,0.00,,---,0.00,VWS V14.00,2013-02-01 11:18:00,
2013-02-01 06:19:00,28.9,-7.1,29.85,WSW,248,3.1,6.5,20,0.00,,---,0.00,VWS V14.00,2013-02-01 11:19:00,
2013-02-01 06:20:00,28.9,-7.1,29.85,WSW,248,3.8,3.8,20,0.00,,---,0.00,VWS V14.00,2013-02-01 11:20:00,
2013-02-01 06:21:00,28.9,-7.1,29.85,West,270,2.7,3.8,20,0.00,,---,0.00,VWS V14.00,2013-02-01 11:21:00,
2013-02-01 06:26:00,29.1,-6.9,29.85,West,270,3.8,3.8,20,0.00,,---,0.00,VWS V14.00,2013-02-01 11:26:00,
2013-02-01 06:27:00,29.1,-6.9,29.85,West,270,3.8,4.3,20,0.00,,---,0.00,VWS V14.00,2013-02-01 11:27:00,
2013-02-01 06:31:00,29.1,-6.9,29.85,WSW,248,2.7,3.4,20,0.00,,---,0.00,VWS V14.00,2013-02-01 11:31:00,
2013-02-01 06:32:00,29.1,-6.9,29.85,WSW,248,0.9,2.7,20,0.00,,---,0.00,VWS V14.00,2013-02-01 11:32:00,
2013-02-01 06:33:00,29.1,-6.9,29.85,WSW,248,3.6,4.5,20,0.00,,---,0.00,VWS V14.00,2013-02-01 11:33:00,
2013-02-01 06:38:00,29.1,-6.9,29.82,WSW,248,2.7,2.7,20,0.00,,---,0.00,VWS V14.00,2013-02-01 11:38:00,
2013-02-01 06:39:00,29.1,-6.9,29.82,WSW,248,2.5,3.1,20,0.00,,---,0.00,VWS V14.00,2013-02-01 11:39:00,
2013-02-01 06:41:00,29.3,-6.8,29.82,WSW,248,2.5,3.8,20,0.00,,---,0.00,VWS V14.00,2013-02-01 11:41:00,
2013-02-01 06:46:00,29.3,-6.8,29.82,West,270,3.4,3.8,20,0.00,,---,0.00,VWS V14.00,2013-02-01 11:46:00,
2013-02-01 06:47:00,29.3,-6.8,29.82,West,270,3.4,4.7,20,0.00,,---,0.00,VWS V14.00,2013-02-01 11:47:00,
2013-02-01 06:51:00,29.5,-6.6,29.85,West,270,2.0,4.9,20,0.00,,---,0.00,VWS V14.00,2013-02-01 11:51:00,
2013-02-01 06:52:00,29.5,-6.6,29.85,WSW,248,2.9,4.3,20,0.00,,---,0.00,VWS V14.00,2013-02-01 11:52:00,
2013-02-01 06:54:00,29.3,-6.8,29.85,West,270,1.6,3.8,20,0.00,,---,0.00,VWS V14.00,2013-02-01 11:54:00,
2013-02-01 06:56:00,29.3,-6.8,29.85,West,270,3.6,3.6,20,0.00,,---,0.00,VWS V14.00,2013-02-01 11:56:00,
2013-02-01 06:59:00,29.3,-6.8,29.85,West,270,3.4,3.4,20,0.00,,---,0.00,VWS V14.00,2013-02-01 11:59:00,
2013-02-01 07:01:00,29.3,-6.8,29.85,West,270,2.0,3.1,20,0.00,,---,0.00,VWS V14.00,2013-02-01 12:01:00,
2013-02-01 07:04:00,29.3,-6.8,29.85,West,270,0.0,0.0,20,0.00,,---,0.00,VWS V14.00,2013-02-01 12:04:00,
2013-02-01 07:05:00,29.3,-6.8,29.85,West,270,0.0,1.1,20,0.00,,---,0.00,VWS V14.00,2013-02-01 12:05:00,
2013-02-01 07:08:00,29.3,-6.8,29.85,WNW,292,2.7,3.6,20,0.00,,---,0.00,VWS V14.00,2013-02-01 12:08:00,
2013-02-01 07:10:00,29.3,-6.8,29.85,WNW,292,2.0,4.0,20,0.00,,---,0.00,VWS V14.00,2013-02-01 12:10:00,
2013-02-01 07:11:00,29.3,-6.8,29.85,WNW,292,2.0,3.1,20,0.00,,---,0.00,VWS V14.00,2013-02-01 12:11:00,
2013-02-01 07:14:00,29.5,-6.6,29.85,WNW,292,0.0,0.9,20,0.00,,---,0.00,VWS V14.00,2013-02-01 12:14:00,
2013-02-01 07:15:00,29.5,-6.6,29.85,WNW,292,2.5,4.0,20,0.00,,---,0.00,VWS V14.00,2013-02-01 12:15:00,
2013-02-01 07:18:00,29.5,-6.6,29.85,WNW,292,1.3,3.6,20,0.00,,---,0.00,VWS V14.00,2013-02-01 12:18:00,
2013-02-01 07:20:00,29.7,-6.5,29.85,WNW,292,2.0,4.0,20,0.00,,---,0.00,VWS V14.00,2013-02-01 12:20:00,
2013-02-01 07:24:00,29.8,-6.3,29.85,WNW,292,0.9,2.2,20,0.00,,---,0.00,VWS V14.00,2013-02-01 12:24:00,
2013-02-01 07:25:00,29.8,-6.3,29.85,WNW,292,3.1,3.1,20,0.00,,---,0.00,VWS V14.00,2013-02-01 12:25:00,
2013-02-01 07:27:00,30.0,-6.2,29.85,NW,315,2.5,2.5,20,0.00,,---,0.00,VWS V14.00,2013-02-01 12:27:00,
2013-02-01 07:28:00,30.0,-6.2,29.85,WNW,292,2.9,3.1,20,0.00,,---,0.00,VWS V14.00,2013-02-01 12:28:00,
2013-02-01 07:30:00,30.0,-6.2,29.85,WNW,292,2.7,2.7,20,0.00,,---,0.00,VWS V14.00,2013-02-01 12:30:00,
2013-02-01 07:32:00,30.2,-6.0,29.85,WNW,292,2.7,3.4,20,0.00,,---,0.00,VWS V14.00,2013-02-01 12:32:00,
2013-02-01 07:34:00,30.2,-6.0,29.85,West,270,2.7,3.1,20,0.00,,---,0.00,VWS V14.00,2013-02-01 12:34:00,
2013-02-01 07:37:00,30.2,-6.0,29.85,West,270,1.3,2.2,20,0.00,,---,0.00,VWS V14.00,2013-02-01 12:37:00,
2013-02-01 07:40:00,30.2,-6.0,29.85,WNW,292,3.1,4.9,20,0.00,,---,0.00,VWS V14.00,2013-02-01 12:40:00,
2013-02-01 07:42:00,30.2,-6.0,29.85,WNW,292,3.6,3.6,20,0.00,,---,0.00,VWS V14.00,2013-02-01 12:42:00,
2013-02-01 07:44:00,30.2,-6.0,29.85,WNW,292,1.6,2.5,20,0.00,,---,0.00,VWS V14.00,2013-02-01 12:44:00,
2013-02-01 07:45:00,30.2,-6.0,29.85,WNW,292,0.0,1.6,20,0.00,,---,0.00,VWS V14.00,2013-02-01 12:45:00,
2013-02-01 07:48:00,30.4,-5.9,29.85,WNW,292,1.3,2.9,20,0.00,,---,0.00,VWS V14.00,2013-02-01 12:48:00,
2013-02-01 07:50:00,30.6,-5.7,29.85,NW,315,2.7,4.9,20,0.00,,---,0.00,VWS V14.00,2013-02-01 12:50:00,
2013-02-01 07:51:00,30.6,-5.7,29.82,NW,315,0.0,2.7,20,0.00,,---,0.00,VWS V14.00,2013-02-01 12:51:00,
2013-02-01 07:53:00,30.7,-5.6,29.82,NW,315,2.2,2.2,20,0.00,,---,0.00,VWS V14.00,2013-02-01 12:53:00,
2013-02-01 07:58:00,30.7,-5.6,29.82,WNW,292,3.1,3.1,20,0.00,,---,0.00,VWS V14.00,2013-02-01 12:58:00,
2013-02-01 07:59:00,30.7,-5.6,29.82,WNW,292,3.1,3.1,20,0.00,,---,0.00,VWS V14.00,2013-02-01 12:59:00,
2013-02-01 08:00:00,30.9,-5.4,29.82,West,270,4.3,4.3,20,0.00,,---,0.00,VWS V14.00,2013-02-01 13:00:00,
2013-02-01 08:05:00,30.9,-5.4,29.82,West,270,5.4,6.3,20,0.00,,---,0.00,VWS V14.00,2013-02-01 13:05:00,
2013-02-01 08:06:00,31.1,-2.4,29.85,WSW,248,5.4,5.4,23,0.00,,---,0.00,VWS V14.00,2013-02-01 13:06:00,
2013-02-01 08:07:00,31.1,-2.4,29.85,West,270,3.1,6.0,23,0.00,,---,0.00,VWS V14.00,2013-02-01 13:07:00,
2013-02-01 08:11:00,30.9,-2.5,29.85,West,270,7.6,7.6,23,0.00,,---,0.00,VWS V14.00,2013-02-01 13:11:00,
2013-02-01 08:12:00,30.9,-2.5,29.85,SW,225,7.4,7.6,23,0.00,,---,0.00,VWS V14.00,2013-02-01 13:12:00,
2013-02-01 08:13:00,30.9,-2.5,29.85,WNW,292,4.3,7.4,23,0.00,,---,0.00,VWS V14.00,2013-02-01 13:13:00,
2013-02-01 08:15:00,30.9,-2.5,29.85,WSW,248,2.7,4.9,23,0.00,,---,0.00,VWS V14.00,2013-02-01 13:15:00,
2013-02-01 08:18:00,30.9,-2.5,29.85,WNW,292,2.9,6.0,23,0.00,,---,0.00,VWS V14.00,2013-02-01 13:18:00,
2013-02-01 08:19:00,31.1,-2.4,29.85,West,270,3.4,3.6,23,0.00,,---,0.00,VWS V14.00,2013-02-01 13:19:00,
2013-02-01 08:23:00,31.1,-2.4,29.85,WNW,292,5.6,6.7,23,0.00,,---,0.00,VWS V14.00,2013-02-01 13:23:00,
2013-02-01 08:25:00,31.1,-2.4,29.85,West,270,2.5,4.5,23,0.00,,---,0.00,VWS V14.00,2013-02-01 13:25:00,
2013-02-01 08:26:00,31.1,-2.4,29.85,WSW,248,6.5,6.5,23,0.00,,---,0.00,VWS V14.00,2013-02-01 13:26:00,
2013-02-01 08:27:00,31.1,-2.4,29.85,WNW,292,7.6,7.6,23,0.00,,---,0.00,VWS V14.00,2013-02-01 13:27:00,
2013-02-01 08:29:00,31.3,-2.2,29.85,WNW,292,5.4,5.8,23,0.00,,---,0.00,VWS V14.00,2013-02-01 13:29:00,
2013-02-01 08:31:00,31.5,-2.0,29.85,NNE,22,2.9,4.3,23,0.00,,---,0.00,VWS V14.00,2013-02-01 13:31:00,
2013-02-01 08:33:00,31.5,-2.0,29.85,NNW,338,3.1,3.6,23,0.00,,---,0.00,VWS V14.00,2013-02-01 13:33:00,
2013-02-01 08:35:00,31.5,-2.0,29.85,WNW,292,3.4,7.4,23,0.00,,---,0.00,VWS V14.00,2013-02-01 13:35:00,
2013-02-01 08:38:00,31.5,-2.0,29.85,NW,315,5.8,6.0,23,0.00,,---,0.00,VWS V14.00,2013-02-01 13:38:00,
2013-02-01 08:39:00,31.5,-2.0,29.85,WSW,248,6.3,6.5,23,0.00,,---,0.00,VWS V14.00,2013-02-01 13:39:00,
2013-02-01 08:42:00,31.3,-2.2,29.85,WNW,292,7.4,10.5,23,0.00,,---,0.00,VWS V14.00,2013-02-01 13:42:00,
2013-02-01 08:44:00,31.3,-2.2,29.85,WNW,292,4.0,10.3,23,0.00,,---,0.00,VWS V14.00,2013-02-01 13:44:00,
2013-02-01 08:46:00,31.3,-2.2,29.85,WNW,292,7.8,7.8,23,0.00,,---,0.00,VWS V14.00,2013-02-01 13:46:00,
2013-02-01 08:48:00,31.1,-2.4,29.85,NNE,22,6.0,8.5,23,0.00,,---,0.00,VWS V14.00,2013-02-01 13:48:00,
2013-02-01 08:51:00,31.3,-2.2,29.85,WNW,292,5.4,10.3,23,0.00,,---,0.00,VWS V14.00,2013-02-01 13:51:00,
2013-02-01 08:52:00,31.3,-2.2,29.85,WNW,292,4.0,5.6,23,0.00,,---,0.00,VWS V14.00,2013-02-01 13:52:00,
2013-02-01 08:55:00,31.1,-2.4,29.85,WNW,292,4.9,8.7,23,0.00,,---,0.00,VWS V14.00,2013-02-01 13:55:00,
2013-02-01 08:56:00,31.3,-2.2,29.85,West,270,4.3,5.6,23,0.00,,---,0.00,VWS V14.00,2013-02-01 13:56:00,
2013-02-01 09:00:00,31.3,-2.2,29.85,West,270,7.4,7.4,23,0.00,,---,0.00,VWS V14.00,2013-02-01 14:00:00,
2013-02-01 09:01:00,31.5,-2.0,29.85,WNW,292,9.8,12.3,23,0.00,,---,0.00,VWS V14.00,2013-02-01 14:01:00,
2013-02-01 09:04:00,31.1,-2.4,29.85,NNW,338,6.3,10.7,23,0.00,,---,0.00,VWS V14.00,2013-02-01 14:04:00,
2013-02-01 09:05:00,31.1,-2.4,29.85,West,270,8.5,8.5,23,0.00,,---,0.00,VWS V14.00,2013-02-01 14:05:00,
2013-02-01 09:07:00,31.1,-2.4,29.88,West,270,6.5,9.8,23,0.00,,---,0.00,VWS V14.00,2013-02-01 14:07:00,
2013-02-01 09:12:00,30.9,-2.5,29.88,West,270,8.5,10.5,23,0.00,,---,0.00,VWS V14.00,2013-02-01 14:12:00,
2013-02-01 09:13:00,30.9,-2.5,29.88,WNW,292,8.7,12.3,23,0.00,,---,0.00,VWS V14.00,2013-02-01 14:13:00,
2013-02-01 09:16:00,30.6,-2.8,29.88,WNW,292,7.8,11.4,23,0.00,,---,0.00,VWS V14.00,2013-02-01 14:16:00,
2013-02-01 09:17:00,30.6,-2.8,29.88,West,270,4.9,9.6,23,0.00,,---,0.00,VWS V14.00,2013-02-01 14:17:00,
2013-02-01 09:18:00,30.7,-2.7,29.88,WNW,292,3.1,5.4,23,0.00,,---,0.00,VWS V14.00,2013-02-01 14:18:00,
2013-02-01 09:21:00,30.7,-2.7,29.88,WSW,248,8.7,8.7,23,0.00,,---,0.00,VWS V14.00,2013-02-01 14:21:00,
2013-02-01 09:24:00,30.9,-2.5,29.88,WNW,292,5.4,5.8,23,0.00,,---,0.00,VWS V14.00,2013-02-01 14:24:00,
2013-02-01 09:25:00,30.9,-2.5,29.88,WNW,292,4.3,5.6,23,0.00,,---,0.00,VWS V14.00,2013-02-01 14:25:00,
2013-02-01 09:26:00,30.9,-2.5,29.88,WNW,292,3.6,4.3,23,0.00,,---,0.00,VWS V14.00,2013-02-01 14:26:00,
2013-02-01 09:30:00,31.1,-2.4,29.88,WNW,292,3.4,8.5,23,0.00,,---,0.00,VWS V14.00,2013-02-01 14:30:00,
2013-02-01 09:32:00,31.1,-2.4,29.88,WNW,292,5.6,7.8,23,0.00,,---,0.00,VWS V14.00,2013-02-01 14:32:00,
2013-02-01 09:33:00,30.9,-2.5,29.88,WNW,292,6.7,7.6,23,0.00,,---,0.00,VWS V14.00,2013-02-01 14:33:00,
2013-02-01 09:34:00,30.9,-2.5,29.88,West,270,6.3,8.1,23,0.00,,---,0.00,VWS V14.00,2013-02-01 14:34:00,
2013-02-01 09:37:00,31.1,-2.4,29.88,WSW,248,4.5,7.6,23,0.00,,---,0.00,VWS V14.00,2013-02-01 14:37:00,
2013-02-01 09:38:00,31.1,-2.4,29.88,WSW,248,7.4,7.8,23,0.00,,---,0.00,VWS V14.00,2013-02-01 14:38:00,
2013-02-01 09:43:00,31.3,-2.2,29.88,SW,225,6.3,8.5,23,0.00,,---,0.00,VWS V14.00,2013-02-01 14:43:00,
2013-02-01 09:44:00,31.3,-2.2,29.88,NW,315,6.0,9.0,23,0.00,,---,0.00,VWS V14.00,2013-02-01 14:44:00,
2013-02-01 09:49:00,31.5,-2.0,29.88,WSW,248,4.0,7.4,23,0.00,,---,0.00,VWS V14.00,2013-02-01 14:49:00,
2013-02-01 09:50:00,31.6,-1.9,29.88,NNW,338,8.5,8.5,23,0.00,,---,0.00,VWS V14.00,2013-02-01 14:50:00,
2013-02-01 09:54:00,31.8,-1.8,29.88,West,270,8.7,10.3,23,0.00,,---,0.00,VWS V14.00,2013-02-01 14:54:00,
2013-02-01 09:55:00,31.8,-1.8,29.88,WNW,292,8.1,8.7,23,0.00,,---,0.00,VWS V14.00,2013-02-01 14:55:00,
2013-02-01 10:01:00,32.0,-1.6,29.88,NNE,22,5.8,6.3,23,0.00,,---,0.00,VWS V14.00,2013-02-01 15:01:00,
2013-02-01 10:02:00,32.2,-1.4,29.88,NW,315,9.6,9.6,23,0.00,,---,0.00,VWS V14.00,2013-02-01 15:02:00,
2013-02-01 10:03:00,32.2,-1.4,29.88,NNW,338,7.6,11.0,23,0.00,,---,0.00,VWS V14.00,2013-02-01 15:03:00,
2013-02-01 10:08:00,31.8,-1.8,29.88,NW,315,3.1,8.5,23,0.00,,---,0.00,VWS V14.00,2013-02-01 15:08:00,
2013-02-01 10:09:00,32.0,-1.6,29.88,NNW,338,3.4,4.7,23,0.00,,---,0.00,VWS V14.00,2013-02-01 15:09:00,
2013-02-01 10:10:00,32.2,-1.4,29.88,WNW,292,2.0,6.0,23,0.00,,---,0.00,VWS V14.00,2013-02-01 15:10:00,
2013-02-01 10:11:00,32.2,-1.4,29.88,NNW,338,7.6,8.7,23,0.00,,---,0.00,VWS V14.00,2013-02-01 15:11:00,
2013-02-01 10:15:00,32.0,-1.6,29.88,NNW,338,7.2,10.1,23,0.00,,---,0.00,VWS V14.00,2013-02-01 15:15:00,
2013-02-01 10:16:00,31.8,-1.8,29.88,WNW,292,6.3,7.2,23,0.00,,---,0.00,VWS V14.00,2013-02-01 15:16:00,
2013-02-01 10:20:00,31.5,-2.0,29.88,North,0,3.8,10.5,23,0.00,,---,0.00,VWS V14.00,2013-02-01 15:20:00,
2013-02-01 10:21:00,31.3,-2.2,29.88,NNW,338,8.1,10.7,23,0.00,,---,0.00,VWS V14.00,2013-02-01 15:21:00,
2013-02-01 10:25:00,31.3,-2.2,29.88,WNW,292,4.9,10.1,23,0.00,,---,0.00,VWS V14.00,2013-02-01 15:25:00,
2013-02-01 10:28:00,31.3,-2.2,29.88,NNW,338,3.1,7.8,23,0.00,,---,0.00,VWS V14.00,2013-02-01 15:28:00,
2013-02-01 10:30:00,31.3,-2.2,29.88,WNW,292,10.7,10.7,23,0.00,,---,0.00,VWS V14.00,2013-02-01 15:30:00,
2013-02-01 10:31:00,31.1,-2.4,29.88,NNW,338,11.0,12.1,23,0.00,,---,0.00,VWS V14.00,2013-02-01 15:31:00,
2013-02-01 10:33:00,30.9,-2.5,29.88,WSW,248,6.0,9.6,23,0.00,,---,0.00,VWS V14.00,2013-02-01 15:33:00,
2013-02-01 10:37:00,30.9,-2.5,29.88,NNW,338,3.4,10.1,23,0.00,,---,0.00,VWS V14.00,2013-02-01 15:37:00,
2013-02-01 10:38:00,30.9,-2.5,29.88,NW,315,6.3,14.8,23,0.00,,---,0.00,VWS V14.00,2013-02-01 15:38:00,
2013-02-01 10:39:00,30.7,-2.7,29.88,North,0,11.0,11.0,23,0.00,,---,0.00,VWS V14.00,2013-02-01 15:39:00,
2013-02-01 10:44:00,30.2,-3.1,29.88,North,0,10.5,10.5,23,0.00,,---,0.00,VWS V14.00,2013-02-01 15:44:00,
2013-02-01 10:46:00,30.0,-3.3,29.88,NNW,338,12.5,17.7,23,0.00,,---,0.00,VWS V14.00,2013-02-01 15:46:00,
2013-02-01 10:47:00,30.0,-3.3,29.88,NNW,338,6.3,12.5,23,0.00,,---,0.00,VWS V14.00,2013-02-01 15:47:00,
2013-02-01 10:50:00,29.7,-3.6,29.88,NW,315,5.8,13.6,23,0.00,,---,0.00,VWS V14.00,2013-02-01 15:50:00,
2013-02-01 10:52:00,29.5,-3.7,29.88,NNW,338,8.7,10.3,23,0.00,,---,0.00,VWS V14.00,2013-02-01 15:52:00,
2013-02-01 10:55:00,29.3,-3.9,29.88,NNW,338,12.5,12.5,23,0.00,,---,0.00,VWS V14.00,2013-02-01 15:55:00,
2013-02-01 10:57:00,28.9,-4.2,29.88,NNW,338,3.1,8.1,23,0.00,,---,0.00,VWS V14.00,2013-02-01 15:57:00,
2013-02-01 10:58:00,28.9,-4.2,29.88,WNW,292,5.4,9.4,23,0.00,,---,0.00,VWS V14.00,2013-02-01 15:58:00,
2013-02-01 11:00:00,29.1,-4.1,29.88,WNW,292,11.4,11.4,23,0.00,,---,0.00,VWS V14.00,2013-02-01 16:00:00,
2013-02-01 11:02:00,29.1,-4.1,29.88,NNW,338,3.8,9.8,23,0.00,,---,0.00,VWS V14.00,2013-02-01 16:02:00,
2013-02-01 11:03:00,29.3,-3.9,29.88,NW,315,5.8,9.6,23,0.00,,---,0.00,VWS V14.00,2013-02-01 16:03:00,
2013-02-01 11:04:00,29.5,-3.7,29.88,WNW,292,5.4,10.1,23,0.00,,---,0.00,VWS V14.00,2013-02-01 16:04:00,
2013-02-01 11:06:00,29.3,-3.9,29.91,WNW,292,11.9,14.1,23,0.00,,---,0.00,VWS V14.00,2013-02-01 16:06:00,
2013-02-01 11:09:00,29.5,-3.7,29.91,WNW,292,7.6,14.1,23,0.00,,---,0.00,VWS V14.00,2013-02-01 16:09:00,
2013-02-01 11:11:00,29.7,-3.6,29.91,NNW,338,8.5,12.8,23,0.00,,---,0.00,VWS V14.00,2013-02-01 16:11:00,
2013-02-01 11:12:00,29.8,-3.4,29.91,NW,315,5.4,15.4,23,0.00,,---,0.00,VWS V14.00,2013-02-01 16:12:00,
2013-02-01 11:17:00,30.2,-3.1,29.91,NNW,338,10.7,10.7,23,0.00,,---,0.00,VWS V14.00,2013-02-01 16:17:00,
2013-02-01 11:18:00,30.2,-3.1,29.91,NW,315,7.6,10.7,23,0.00,,---,0.00,VWS V14.00,2013-02-01 16:18:00,
2013-02-01 11:19:00,30.2,-3.1,29.91,NNW,338,15.2,15.2,23,0.00,,---,0.00,VWS V14.00,2013-02-01 16:19:00,
2013-02-01 11:20:00,30.2,-3.1,29.91,WNW,292,13.2,15.4,23,0.00,,---,0.00,VWS V14.00,2013-02-01 16:20:00,
2013-02-01 11:23:00,30.4,-3.0,29.91,WNW,292,6.5,9.4,23,0.00,,---,0.00,VWS V14.00,2013-02-01 16:23:00,
2013-02-01 11:25:00,30.6,-2.8,29.91,WNW,292,13.2,14.1,23,0.00,,---,0.00,VWS V14.00,2013-02-01 16:25:00,
2013-02-01 11:26:00,30.6,-2.8,29.91,WNW,292,8.7,13.2,23,0.00,,---,0.00,VWS V14.00,2013-02-01 16:26:00,
2013-02-01 11:29:00,30.6,-2.8,29.91,WNW,292,10.1,14.8,23,0.00,,---,0.00,VWS V14.00,2013-02-01 16:29:00,
2013-02-01 11:30:00,30.7,-2.7,29.91,NNW,338,5.6,10.1,23,0.00,,---,0.00,VWS V14.00,2013-02-01 16:30:00,
2013-02-01 11:31:00,30.7,-2.7,29.91,WNW,292,15.2,15.2,23,0.00,,---,0.00,VWS V14.00,2013-02-01 16:31:00,
2013-02-01 11:36:00,30.6,-2.8,29.91,West,270,9.0,17.2,23,0.00,,---,0.00,VWS V14.00,2013-02-01 16:36:00,
2013-02-01 11:37:00,30.7,-2.7,29.91,WNW,292,7.6,12.3,23,0.00,,---,0.00,VWS V14.00,2013-02-01 16:37:00,
2013-02-01 11:38:00,30.6,-2.8,29.91,WNW,292,10.1,19.2,23,0.00,,---,0.00,VWS V14.00,2013-02-01 16:38:00,
2013-02-01 11:39:00,30.6,-2.8,29.91,NNW,338,7.8,10.1,23,0.00,,---,0.00,VWS V14.00,2013-02-01 16:39:00,
2013-02-01 11:43:00,30.7,-2.7,29.91,NW,315,12.8,17.0,23,0.00,,---,0.00,VWS V14.00,2013-02-01 16:43:00,
2013-02-01 11:44:00,30.7,-2.7,29.91,NW,315,7.8,13.0,23,0.00,,---,0.00,VWS V14.00,2013-02-01 16:44:00,
2013-02-01 11:45:00,30.7,-2.7,29.91,NNW,338,5.6,12.3,23,0.00,,---,0.00,VWS V14.00,2013-02-01 16:45:00,
2013-02-01 11:50:00,31.1,-2.4,29.91,SW,225,5.4,7.6,23,0.00,,---,0.00,VWS V14.00,2013-02-01 16:50:00,
2013-02-01 11:51:00,31.3,-2.2,29.91,WNW,292,6.0,13.2,23,0.00,,---,0.00,VWS V14.00,2013-02-01 16:51:00,
2013-02-01 11:53:00,31.5,-2.0,29.91,WSW,248,9.6,10.5,23,0.00,,---,0.00,VWS V14.00,2013-02-01 16:53:00,
2013-02-01 11:55:00,31.5,-2.0,29.91,WNW,292,11.0,13.2,23,0.00,,---,0.00,VWS V14.00,2013-02-01 16:55:00,
2013-02-01 11:56:00,31.5,-2.0,29.91,WNW,292,9.0,11.0,23,0.00,,---,0.00,VWS V14.00,2013-02-01 16:56:00,
2013-02-01 11:58:00,31.5,-2.0,29.91,WNW,292,10.5,13.6,23,0.00,,---,0.00,VWS V14.00,2013-02-01 16:58:00,
2013-02-01 12:01:00,31.6,-1.9,29.91,WNW,292,7.8,12.5,23,0.00,,---,0.00,VWS V14.00,2013-02-01 17:01:00,
2013-02-01 12:05:00,31.6,-1.9,29.91,WNW,292,8.7,13.2,23,0.00,,---,0.00,VWS V14.00,2013-02-01 17:05:00,
2013-02-01 12:07:00,31.8,-1.8,29.91,NW,315,10.3,13.6,23,0.00,,---,0.00,VWS V14.00,2013-02-01 17:07:00,
2013-02-01 12:08:00,31.8,-1.8,29.91,WNW,292,6.7,10.3,23,0.00,,---,0.00,VWS V14.00,2013-02-01 17:08:00,
2013-02-01 12:10:00,32.0,-1.6,29.91,NNW,338,10.3,12.8,23,0.00,,---,0.00,VWS V14.00,2013-02-01 17:10:00,
2013-02-01 12:13:00,32.2,-1.4,29.91,NW,315,8.1,9.6,23,0.00,,---,0.00,VWS V14.00,2013-02-01 17:13:00,
2013-02-01 12:14:00,32.0,-1.6,29.91,WNW,292,8.7,10.3,23,0.00,,---,0.00,VWS V14.00,2013-02-01 17:14:00,
2013-02-01 12:15:00,32.2,-1.4,29.91,NNW,338,12.3,13.2,23,0.00,,---,0.00,VWS V14.00,2013-02-01 17:15:00,
2013-02-01 12:19:00,32.2,-1.4,29.91,NW,315,8.1,16.6,23,0.00,,---,0.00,VWS V14.00,2013-02-01 17:19:00,
2013-02-01 12:20:00,32.2,-1.4,29.91,West,270,4.9,12.8,23,0.00,,---,0.00,VWS V14.00,2013-02-01 17:20:00,
2013-02-01 12:21:00,32.4,-1.3,29.91,NNE,22,6.3,6.3,23,0.00,,---,0.00,VWS V14.00,2013-02-01 17:21:00,
2013-02-01 12:23:00,32.5,-1.1,29.91,NW,315,7.8,10.1,23,0.00,,---,0.00,VWS V14.00,2013-02-01 17:23:00,
2013-02-01 12:26:00,33.4,-0.4,29.91,North,0,5.4,10.1,23,0.00,,---,0.00,VWS V14.00,2013-02-01 17:26:00,
2013-02-01 12:27:00,33.8,-1.0,29.91,WNW,292,4.3,7.8,22,0.00,,---,0.00,VWS V14.00,2013-02-01 17:27:00,
2013-02-01 12:32:00,33.8,-1.0,29.91,West,270,5.8,12.5,22,0.00,,---,0.00,VWS V14.00,2013-02-01 17:32:00,
2013-02-01 12:35:00,33.1,-0.7,29.91,NW,315,7.8,19.9,23,0.00,,---,0.00,VWS V14.00,2013-02-01 17:35:00,
2013-02-01 12:37:00,33.1,-0.7,29.91,NNW,338,6.5,13.2,23,0.00,,---,0.00,VWS V14.00,2013-02-01 17:37:00,
2013-02-01 12:38:00,32.5,-1.1,29.91,WNW,292,4.3,11.9,23,0.00,,---,0.00,VWS V14.00,2013-02-01 17:38:00,
2013-02-01 12:43:00,32.4,-1.3,29.91,WNW,292,13.0,21.5,23,0.00,,---,0.00,VWS V14.00,2013-02-01 17:43:00,
2013-02-01 12:44:00,32.2,-1.4,29.91,WNW,292,10.5,13.2,23,0.00,,---,0.00,VWS V14.00,2013-02-01 17:44:00,
2013-02-01 12:46:00,32.0,-1.6,29.91,WNW,292,16.6,17.5,23,0.00,,---,0.00,VWS V14.00,2013-02-01 17:46:00,
2013-02-01 12:50:00,32.0,-1.6,29.91,NNW,338,6.0,10.7,23,0.00,,---,0.00,VWS V14.00,2013-02-01 17:50:00,
2013-02-01 12:52:00,32.5,-1.1,29.91,WSW,248,13.2,13.2,23,0.00,,---,0.00,VWS V14.00,2013-02-01 17:52:00,
2013-02-01 12:54:00,32.9,-0.8,29.91,WNW,292,12.5,12.5,23,0.00,,---,0.00,VWS V14.00,2013-02-01 17:54:00,
2013-02-01 12:56:00,33.1,-0.7,29.91,West,270,11.4,11.4,23,0.00,,---,0.00,VWS V14.00,2013-02-01 17:56:00,
2013-02-01 12:59:00,32.7,-1.0,29.91,NNW,338,12.3,12.3,23,0.00,,---,0.00,VWS V14.00,2013-02-01 17:59:00,
2013-02-01 13:01:00,32.5,-1.1,29.91,NNW,338,5.6,10.3,23,0.00,,---,0.00,VWS V14.00,2013-02-01 18:01:00,
2013-02-01 13:05:00,32.4,-1.3,29.91,NNW,338,7.8,19.5,23,0.00,,---,0.00,VWS V14.00,2013-02-01 18:05:00,
2013-02-01 13:06:00,32.4,-1.3,29.88,WNW,292,10.7,15.7,23,0.00,,---,0.00,VWS V14.00,2013-02-01 18:06:00,
2013-02-01 13:10:00,33.1,-0.7,29.88,NNW,338,8.5,10.1,23,0.00,,---,0.00,VWS V14.00,2013-02-01 18:10:00,
2013-02-01 13:11:00,33.6,-0.2,29.88,WNW,292,13.6,14.8,23,0.00,,---,0.00,VWS V14.00,2013-02-01 18:11:00,
2013-02-01 13:12:00,33.6,-0.2,29.88,NW,315,15.2,15.4,23,0.00,,---,0.00,VWS V14.00,2013-02-01 18:12:00,
2013-02-01 13:16:00,34.0,-0.9,29.88,North,0,13.2,17.0,22,0.00,,---,0.00,VWS V14.00,2013-02-01 18:16:00,
2013-02-01 13:18:00,34.5,-0.4,29.88,West,270,13.2,13.2,22,0.00,,---,0.00,VWS V14.00,2013-02-01 18:18:00,
2013-02-01 13:21:00,34.0,-0.9,29.91,NW,315,11.0,19.7,22,0.00,,---,0.00,VWS V14.00,2013-02-01 18:21:00,
2013-02-01 13:23:00,34.2,-0.7,29.91,WNW,292,13.6,13.6,22,0.00,,---,0.00,VWS V14.00,2013-02-01 18:23:00,
2013-02-01 13:25:00,33.6,-0.2,29.91,WNW,292,8.7,13.2,23,0.00,,---,0.00,VWS V14.00,2013-02-01 18:25:00,
2013-02-01 13:26:00,33.6,-0.2,29.91,NNW,338,13.2,13.6,23,0.00,,---,0.00,VWS V14.00,2013-02-01 18:26:00,
2013-02-01 13:28:00,33.4,-0.4,29.91,WNW,292,8.7,11.0,23,0.00,,---,0.00,VWS V14.00,2013-02-01 18:28:00,
2013-02-01 13:29:00,33.6,-0.2,29.91,West,270,8.7,8.7,23,0.00,,---,0.00,VWS V14.00,2013-02-01 18:29:00,
2013-02-01 13:31:00,33.3,-0.5,29.91,NW,315,8.5,8.7,23,0.00,,---,0.00,VWS V14.00,2013-02-01 18:31:00,
2013-02-01 13:34:00,33.3,-0.5,29.91,NW,315,8.1,13.4,23,0.00,,---,0.00,VWS V14.00,2013-02-01 18:34:00,
2013-02-01 13:36:00,33.1,-0.7,29.88,WNW,292,7.6,12.5,23,0.00,,---,0.00,VWS V14.00,2013-02-01 18:36:00,
2013-02-01 13:37:00,32.9,-0.8,29.88,North,0,4.9,10.5,23,0.00,,---,0.00,VWS V14.00,2013-02-01 18:37:00,
2013-02-01 13:38:00,33.1,-0.7,29.88,WNW,292,5.6,7.6,23,0.00,,---,0.00,VWS V14.00,2013-02-01 18:38:00,
2013-02-01 13:39:00,33.1,-0.7,29.88,NW,315,7.6,18.1,23,0.00,,---,0.00,VWS V14.00,2013-02-01 18:39:00,
2013-02-01 13:43:00,33.1,-0.7,29.88,NNW,338,11.9,23.0,23,0.00,,---,0.00,VWS V14.00,2013-02-01 18:43:00,
2013-02-01 13:44:00,33.4,-0.4,29.88,WNW,292,7.4,11.9,23,0.00,,---,0.00,VWS V14.00,2013-02-01 18:44:00,
2013-02-01 13:48:00,34.2,-0.7,29.88,West,270,14.5,14.5,22,0.00,,---,0.00,VWS V14.00,2013-02-01 18:48:00,
2013-02-01 13:49:00,34.2,-0.7,29.88,NW,315,17.5,17.5,22,0.00,,---,0.00,VWS V14.00,2013-02-01 18:49:00,
2013-02-01 13:50:00,34.0,-0.9,29.88,WNW,292,12.5,17.5,22,0.00,,---,0.00,VWS V14.00,2013-02-01 18:50:00,
2013-02-01 13:51:00,34.3,-0.6,29.91,WNW,292,6.5,12.5,22,0.00,,---,0.00,VWS V14.00,2013-02-01 18:51:00,
2013-02-01 13:56:00,34.0,-0.9,29.91,West,270,9.4,11.4,22,0.00,,---,0.00,VWS V14.00,2013-02-01 18:56:00,
2013-02-01 13:57:00,33.6,-0.2,29.91,West,270,8.7,11.4,23,0.00,,---,0.00,VWS V14.00,2013-02-01 18:57:00,
2013-02-01 14:01:00,33.1,-0.7,29.91,WNW,292,5.6,11.0,23,0.00,,---,0.00,VWS V14.00,2013-02-01 19:01:00,
2013-02-01 14:03:00,32.7,-1.0,29.91,NW,315,5.4,10.1,23,0.00,,---,0.00,VWS V14.00,2013-02-01 19:03:00,
2013-02-01 14:05:00,32.2,-1.4,29.91,NNE,22,16.3,16.3,23,0.00,,---,0.00,VWS V14.00,2013-02-01 19:05:00,
2013-02-01 14:09:00,31.6,-1.9,29.94,NNW,338,9.8,11.0,23,0.00,,---,0.00,VWS V14.00,2013-02-01 19:09:00,
2013-02-01 14:10:00,31.5,-2.0,29.94,West,270,4.3,12.5,23,0.00,,---,0.00,VWS V14.00,2013-02-01 19:10:00,
2013-02-01 14:11:00,31.5,-2.0,29.94,North,0,5.6,8.7,23,0.00,,---,0.00,VWS V14.00,2013-02-01 19:11:00,
2013-02-01 14:16:00,32.9,-0.8,29.94,WNW,292,10.3,11.9,23,0.00,,---,0.00,VWS V14.00,2013-02-01 19:16:00,
2013-02-01 14:17:00,32.7,-1.0,29.94,WSW,248,5.6,10.3,23,0.00,,---,0.00,VWS V14.00,2013-02-01 19:17:00,
2013-02-01 14:19:00,32.5,-1.1,29.94,NNE,22,8.1,12.1,23,0.00,,---,0.00,VWS V14.00,2013-02-01 19:19:00,
2013-02-01 14:22:00,32.2,-1.4,29.94,NNW,338,5.8,11.9,23,0.00,,---,0.00,VWS V14.00,2013-02-01 19:22:00,
2013-02-01 14:25:00,31.8,-1.8,29.94,NW,315,5.6,8.7,23,0.00,,---,0.00,VWS V14.00,2013-02-01 19:25:00,
2013-02-01 14:28:00,31.6,-1.9,29.94,NNW,338,12.8,701.7,23,0.00,,---,0.00,VWS V14.00,2013-02-01 19:28:00,
2013-02-01 14:29:00,31.5,-2.0,29.94,West,270,7.6,12.8,23,0.00,,---,0.00,VWS V14.00,2013-02-01 19:29:00,
2013-02-01 14:30:00,31.5,-2.0,29.94,NNW,338,12.1,13.0,23,0.00,,---,0.00,VWS V14.00,2013-02-01 19:30:00,
2013-02-01 14:34:00,31.8,-1.8,29.94,WNW,292,5.6,14.8,23,0.00,,---,0.00,VWS V14.00,2013-02-01 19:34:00,
2013-02-01 14:35:00,32.2,-1.4,29.94,NNW,338,2.7,12.3,23,0.00,,---,0.00,VWS V14.00,2013-02-01 19:35:00,
2013-02-01 14:37:00,32.2,-1.4,29.97,WNW,292,12.1,12.1,23,0.00,,---,0.00,VWS V14.00,2013-02-01 19:37:00,
2013-02-01 14:39:00,32.0,-1.6,29.97,WNW,292,10.3,10.3,23,0.00,,---,0.00,VWS V14.00,2013-02-01 19:39:00,
2013-02-01 14:40:00,32.0,-1.6,29.97,WNW,292,8.1,11.2,23,0.00,,---,0.00,VWS V14.00,2013-02-01 19:40:00,
2013-02-01 14:45:00,32.4,-1.3,29.97,WNW,292,7.6,8.5,23,0.00,,---,0.00,VWS V14.00,2013-02-01 19:45:00,
2013-02-01 14:47:00,32.4,-1.3,29.97,WNW,292,9.8,19.0,23,0.00,,---,0.00,VWS V14.00,2013-02-01 19:47:00,
2013-02-01 14:48:00,32.5,-1.1,29.97,West,270,4.3,9.8,23,0.00,,---,0.00,VWS V14.00,2013-02-01 19:48:00,
2013-02-01 14:50:00,32.9,-0.8,29.97,WNW,292,17.2,17.2,23,0.00,,---,0.00,VWS V14.00,2013-02-01 19:50:00,
2013-02-01 14:52:00,33.1,-0.7,29.97,West,270,10.7,10.7,23,0.00,,---,0.00,VWS V14.00,2013-02-01 19:52:00,
2013-02-01 14:53:00,32.9,-0.8,29.97,WNW,292,11.9,12.5,23,0.00,,---,0.00,VWS V14.00,2013-02-01 19:53:00,
2013-02-01 14:57:00,32.7,-1.0,29.97,WNW,292,6.3,12.1,23,0.00,,---,0.00,VWS V14.00,2013-02-01 19:57:00,
2013-02-01 15:00:00,33.1,-0.7,29.97,NNW,338,7.8,13.9,23,0.00,,---,0.00,VWS V14.00,2013-02-01 20:00:00,
2013-02-01 15:01:00,33.1,-0.7,29.97,North,0,5.6,12.5,23,0.00,,---,0.00,VWS V14.00,2013-02-01 20:01:00,
2013-02-01 15:04:00,33.1,-0.7,29.97,NNW,338,14.8,14.8,23,0.00,,---,0.00,VWS V14.00,2013-02-01 20:04:00,
2013-02-01 15:05:00,32.9,-0.8,29.97,NW,315,6.3,14.8,23,0.00,,---,0.00,VWS V14.00,2013-02-01 20:05:00,
2013-02-01 15:07:00,33.1,-0.7,29.97,North,0,11.0,11.0,23,0.00,,---,0.00,VWS V14.00,2013-02-01 20:07:00,
2013-02-01 15:10:00,33.3,-0.5,29.97,WNW,292,12.5,20.1,23,0.00,,---,0.00,VWS V14.00,2013-02-01 20:10:00,
2013-02-01 15:13:00,32.9,-0.8,29.97,NNW,338,12.3,12.3,23,0.00,,---,0.00,VWS V14.00,2013-02-01 20:13:00,
2013-02-01 15:14:00,33.1,-0.7,29.97,NNW,338,7.4,12.3,23,0.00,,---,0.00,VWS V14.00,2013-02-01 20:14:00,
2013-02-01 15:17:00,33.1,-0.7,29.97,NNW,338,13.0,13.0,23,0.00,,---,0.00,VWS V14.00,2013-02-01 20:17:00,
2013-02-01 15:18:00,33.1,-0.7,29.97,WNW,292,12.3,13.0,23,0.00,,---,0.00,VWS V14.00,2013-02-01 20:18:00,
2013-02-01 15:20:00,33.3,-0.5,29.97,NNW,338,10.3,14.3,23,0.00,,---,0.00,VWS V14.00,2013-02-01 20:20:00,
2013-02-01 15:22:00,33.1,-0.7,29.97,WNW,292,12.5,13.6,23,0.00,,---,0.00,VWS V14.00,2013-02-01 20:22:00,
2013-02-01 15:24:00,33.1,-0.7,29.97,WNW,292,11.0,12.5,23,0.00,,---,0.00,VWS V14.00,2013-02-01 20:24:00,
2013-02-01 15:25:00,33.1,-0.7,29.97,WNW,292,8.5,15.7,23,0.00,,---,0.00,VWS V14.00,2013-02-01 20:25:00,
2013-02-01 15:28:00,32.4,-1.3,29.97,WNW,292,12.5,12.5,23,0.00,,---,0.00,VWS V14.00,2013-02-01 20:28:00,
2013-02-01 15:30:00,32.5,-1.1,29.97,WSW,248,6.3,14.3,23,0.00,,---,0.00,VWS V14.00,2013-02-01 20:30:00,
2013-02-01 15:33:00,32.7,-1.0,29.97,West,270,14.8,18.6,23,0.00,,---,0.00,VWS V14.00,2013-02-01 20:33:00,
2013-02-01 15:34:00,33.1,-0.7,29.97,WNW,292,8.5,17.7,23,0.00,,---,0.00,VWS V14.00,2013-02-01 20:34:00,
2013-02-01 15:35:00,33.3,-0.5,29.97,WNW,292,12.1,12.1,23,0.00,,---,0.00,VWS V14.00,2013-02-01 20:35:00,
2013-02-01 15:36:00,33.3,-0.5,30.00,WNW,292,8.5,12.1,23,0.00,,---,0.00,VWS V14.00,2013-02-01 20:36:00,
2013-02-01 15:39:00,33.3,-0.5,30.00,NW,315,6.9,11.0,23,0.00,,---,0.00,VWS V14.00,2013-02-01 20:39:00,
2013-02-01 15:41:00,33.3,-0.5,30.00,NW,315,11.2,15.4,23,0.00,,---,0.00,VWS V14.00,2013-02-01 20:41:00,
2013-02-01 15:43:00,33.3,-0.5,30.00,WNW,292,8.7,12.8,23,0.00,,---,0.00,VWS V14.00,2013-02-01 20:43:00,
2013-02-01 15:45:00,33.1,-0.7,30.00,WNW,292,8.7,10.3,23,0.00,,---,0.00,VWS V14.00,2013-02-01 20:45:00,
2013-02-01 15:46:00,33.3,-0.5,30.00,WNW,292,8.5,11.0,23,0.00,,---,0.00,VWS V14.00,2013-02-01 20:46:00,
2013-02-01 15:50:00,33.3,-0.5,30.00,WNW,292,11.9,15.4,23,0.00,,---,0.00,VWS V14.00,2013-02-01 20:50:00,
2013-02-01 15:51:00,33.1,-0.7,30.00,WNW,292,10.5,11.9,23,0.00,,---,0.00,VWS V14.00,2013-02-01 20:51:00,
2013-02-01 15:53:00,33.1,-0.7,30.00,West,270,11.4,15.2,23,0.00,,---,0.00,VWS V14.00,2013-02-01 20:53:00,
2013-02-01 15:56:00,33.1,-0.7,30.00,WNW,292,11.2,23.0,23,0.00,,---,0.00,VWS V14.00,2013-02-01 20:56:00,
2013-02-01 15:57:00,32.9,-0.8,30.00,North,0,7.4,12.8,23,0.00,,---,0.00,VWS V14.00,2013-02-01 20:57:00,
2013-02-01 15:58:00,33.1,-0.7,30.00,NW,315,12.1,14.5,23,0.00,,---,0.00,VWS V14.00,2013-02-01 20:58:00,
2013-02-01 15:59:00,32.7,-1.0,30.00,NNW,338,5.8,14.5,23,0.00,,---,0.00,VWS V14.00,2013-02-01 20:59:00,
2013-02-01 16:02:00,33.1,-0.7,30.00,WNW,292,8.1,8.7,23,0.00,,---,0.00,VWS V14.00,2013-02-01 21:02:00,
2013-02-01 16:03:00,33.1,-0.7,30.00,WNW,292,6.3,8.1,23,0.00,,---,0.00,VWS V14.00,2013-02-01 21:03:00,
2013-02-01 16:06:00,33.3,-0.5,30.00,WNW,292,8.7,17.2,23,0.00,,---,0.00,VWS V14.00,2013-02-01 21:06:00,
2013-02-01 16:08:00,33.3,-0.5,30.00,West,270,9.6,13.0,23,0.00,,---,0.00,VWS V14.00,2013-02-01 21:08:00,
2013-02-01 16:09:00,33.3,-0.5,30.00,WNW,292,12.3,23.5,23,0.00,,---,0.00,VWS V14.00,2013-02-01 21:09:00,
2013-02-01 16:10:00,33.3,-0.5,30.00,NNW,338,5.8,15.2,23,0.00,,---,0.00,VWS V14.00,2013-02-01 21:10:00,
2013-02-01 16:12:00,33.3,-0.5,30.00,NW,315,3.1,8.5,23,0.00,,---,0.00,VWS V14.00,2013-02-01 21:12:00,
2013-02-01 16:13:00,33.3,-0.5,30.00,West,270,3.8,6.0,23,0.00,,---,0.00,VWS V14.00,2013-02-01 21:13:00,
2013-02-01 16:17:00,32.7,-1.0,30.00,WNW,292,9.2,12.8,23,0.00,,---,0.00,VWS V14.00,2013-02-01 21:17:00,
2013-02-01 16:18:00,32.7,-1.0,30.00,WNW,292,8.7,13.0,23,0.00,,---,0.00,VWS V14.00,2013-02-01 21:18:00,
2013-02-01 16:19:00,32.5,-1.1,30.00,West,270,8.1,14.3,23,0.00,,---,0.00,VWS V14.00,2013-02-01 21:19:00,
2013-02-01 16:22:00,32.2,-1.4,30.03,WNW,292,11.0,12.8,23,0.00,,---,0.00,VWS V14.00,2013-02-01 21:22:00,
2013-02-01 16:23:00,32.0,-1.6,30.03,WNW,292,12.5,17.0,23,0.00,,---,0.00,VWS V14.00,2013-02-01 21:23:00,
2013-02-01 16:25:00,31.6,-1.9,30.03,WNW,292,8.1,8.1,23,0.00,,---,0.00,VWS V14.00,2013-02-01 21:25:00,
2013-02-01 16:26:00,31.5,-2.0,30.03,WNW,292,10.5,10.5,23,0.00,,---,0.00,VWS V14.00,2013-02-01 21:26:00,
2013-02-01 16:27:00,31.3,-2.2,30.03,WNW,292,6.3,16.8,23,0.00,,---,0.00,VWS V14.00,2013-02-01 21:27:00,
2013-02-01 16:28:00,31.1,-2.4,30.03,WNW,292,4.0,21.0,23,0.00,,---,0.00,VWS V14.00,2013-02-01 21:28:00,
2013-02-01 16:33:00,30.9,-2.5,30.03,WNW,292,12.5,14.8,23,0.00,,---,0.00,VWS V14.00,2013-02-01 21:33:00,
2013-02-01 16:35:00,30.7,-2.7,30.03,NNW,338,7.8,10.1,23,0.00,,---,0.00,VWS V14.00,2013-02-01 21:35:00,
2013-02-01 16:37:00,30.6,-2.8,30.00,NW,315,14.8,14.8,23,0.00,,---,0.00,VWS V14.00,2013-02-01 21:37:00,
2013-02-01 16:39:00,30.6,-2.8,30.00,NW,315,9.4,16.3,23,0.00,,---,0.00,VWS V14.00,2013-02-01 21:39:00,
2013-02-01 16:42:00,30.6,-2.8,30.00,WNW,292,12.3,16.8,23,0.00,,---,0.00,VWS V14.00,2013-02-01 21:42:00,
2013-02-01 16:44:00,30.6,-2.8,30.00,West,270,9.2,16.8,23,0.00,,---,0.00,VWS V14.00,2013-02-01 21:44:00,
2013-02-01 16:47:00,30.6,-2.8,30.00,WNW,292,11.9,13.4,23,0.00,,---,0.00,VWS V14.00,2013-02-01 21:47:00,
2013-02-01 16:49:00,30.6,-2.8,30.00,West,270,5.8,13.0,23,0.00,,---,0.00,VWS V14.00,2013-02-01 21:49:00,
2013-02-01 16:52:00,30.4,-3.0,30.03,SW,225,13.6,13.6,23,0.00,,---,0.00,VWS V14.00,2013-02-01 21:52:00,
2013-02-01 16:53:00,30.4,-3.0,30.03,WNW,292,6.5,13.6,23,0.00,,---,0.00,VWS V14.00,2013-02-01 21:53:00,
2013-02-01 16:57:00,30.4,-3.0,30.03,NNW,338,13.0,13.0,23,0.00,,---,0.00,VWS V14.00,2013-02-01 21:57:00,
2013-02-01 16:59:00,30.2,-3.1,30.03,NW,315,11.0,14.3,23,0.00,,---,0.00,VWS V14.00,2013-02-01 21:59:00,
2013-02-01 17:01:00,30.2,-3.1,30.03,West,270,13.0,13.0,23,0.00,,---,0.00,VWS V14.00,2013-02-01 22:01:00,
2013-02-01 17:03:00,30.2,-3.1,30.03,WNW,292,11.9,11.9,23,0.00,,---,0.00,VWS V14.00,2013-02-01 22:03:00,
2013-02-01 17:04:00,30.2,-3.1,30.03,WNW,292,7.4,11.9,23,0.00,,---,0.00,VWS V14.00,2013-02-01 22:04:00,
2013-02-01 17:08:00,30.0,-3.3,30.06,WNW,292,10.1,13.2,23,0.00,,---,0.00,VWS V14.00,2013-02-01 22:08:00,
2013-02-01 17:09:00,30.0,-3.3,30.06,WNW,292,12.8,12.8,23,0.00,,---,0.00,VWS V14.00,2013-02-01 22:09:00,
2013-02-01 17:11:00,30.0,-6.2,30.06,WNW,292,6.0,10.1,20,0.00,,---,0.00,VWS V14.00,2013-02-01 22:11:00,
2013-02-01 17:14:00,29.8,-6.3,30.06,West,270,5.8,10.3,20,0.00,,---,0.00,VWS V14.00,2013-02-01 22:14:00,
2013-02-01 17:16:00,29.8,-6.3,30.06,West,270,17.2,17.2,20,0.00,,---,0.00,VWS V14.00,2013-02-01 22:16:00,
2013-02-01 17:18:00,29.8,-6.3,30.06,WNW,292,10.7,13.6,20,0.00,,---,0.00,VWS V14.00,2013-02-01 22:18:00,
2013-02-01 17:21:00,29.8,-6.3,30.06,WSW,248,7.6,10.3,20,0.00,,---,0.00,VWS V14.00,2013-02-01 22:21:00,
2013-02-01 17:22:00,29.8,-6.3,30.06,NW,315,12.3,12.3,20,0.00,,---,0.00,VWS V14.00,2013-02-01 22:22:00,
2013-02-01 17:23:00,29.8,-6.3,30.06,NNW,338,12.8,12.8,20,0.00,,---,0.00,VWS V14.00,2013-02-01 22:23:00,
2013-02-01 17:26:00,29.7,-6.5,30.06,NW,315,5.8,11.0,20,0.00,,---,0.00,VWS V14.00,2013-02-01 22:26:00,
2013-02-01 17:27:00,29.7,-6.5,30.06,WNW,292,7.6,8.1,20,0.00,,---,0.00,VWS V14.00,2013-02-01 22:27:00,
2013-02-01 17:28:00,29.7,-6.5,30.06,NW,315,8.5,10.1,20,0.00,,---,0.00,VWS V14.00,2013-02-01 22:28:00,
2013-02-01 17:29:00,29.7,-6.5,30.06,WSW,248,2.5,8.5,20,0.00,,---,0.00,VWS V14.00,2013-02-01 22:29:00,
2013-02-01 17:31:00,29.8,-6.3,30.06,West,270,4.9,9.2,20,0.00,,---,0.00,VWS V14.00,2013-02-01 22:31:00,
2013-02-01 17:35:00,29.7,-6.5,30.06,WNW,292,5.8,5.8,20,0.00,,---,0.00,VWS V14.00,2013-02-01 22:35:00,
2013-02-01 17:37:00,29.7,-6.5,30.06,WNW,292,6.5,7.8,20,0.00,,---,0.00,VWS V14.00,2013-02-01 22:37:00,
2013-02-01 17:38:00,29.7,-6.5,30.06,West,270,10.5,10.5,20,0.00,,---,0.00,VWS V14.00,2013-02-01 22:38:00,
2013-02-01 17:41:00,29.7,-6.5,30.06,WNW,292,7.6,7.6,20,0.00,,---,0.00,VWS V14.00,2013-02-01 22:41:00,
2013-02-01 17:42:00,29.7,-6.5,30.06,WNW,292,6.0,10.3,20,0.00,,---,0.00,VWS V14.00,2013-02-01 22:42:00,
2013-02-01 17:43:00,29.7,-6.5,30.06,NNW,338,9.6,14.8,20,0.00,,---,0.00,VWS V14.00,2013-02-01 22:43:00,
2013-02-01 17:47:00,29.5,-3.7,30.06,NW,315,10.1,10.5,23,0.00,,---,0.00,VWS V14.00,2013-02-01 22:47:00,
2013-02-01 17:48:00,29.5,-6.6,30.06,WNW,292,7.8,11.9,20,0.00,,---,0.00,VWS V14.00,2013-02-01 22:48:00,
2013-02-01 17:50:00,29.5,-6.6,30.06,WSW,248,3.8,8.1,20,0.00,,---,0.00,VWS V14.00,2013-02-01 22:50:00,
2013-02-01 17:53:00,29.5,-6.6,30.09,WNW,292,5.4,10.3,20,0.00,,---,0.00,VWS V14.00,2013-02-01 22:53:00,
2013-02-01 17:57:00,29.5,-6.6,30.09,WSW,248,8.1,13.2,20,0.00,,---,0.00,VWS V14.00,2013-02-01 22:57:00,
2013-02-01 17:58:00,29.5,-6.6,30.09,West,270,3.4,10.7,20,0.00,,---,0.00,VWS V14.00,2013-02-01 22:58:00,
2013-02-01 17:59:00,29.5,-6.6,30.09,WNW,292,12.8,12.8,20,0.00,,---,0.00,VWS V14.00,2013-02-01 22:59:00,
2013-02-01 18:02:00,29.5,-6.6,30.09,WNW,292,6.0,7.8,20,0.00,,---,0.00,VWS V14.00,2013-02-01 23:02:00,
2013-02-01 18:05:00,29.5,-6.6,30.09,WNW,292,7.6,8.5,20,0.00,,---,0.00,VWS V14.00,2013-02-01 23:05:00,
2013-02-01 18:07:00,29.5,-6.6,30.09,NW,315,6.5,8.7,20,0.00,,---,0.00,VWS V14.00,2013-02-01 23:07:00,
2013-02-01 18:09:00,29.5,-6.6,30.09,WNW,292,6.5,8.1,20,0.00,,---,0.00,VWS V14.00,2013-02-01 23:09:00,
2013-02-01 18:11:00,29.5,-6.6,30.09,WSW,248,4.9,5.6,20,0.00,,---,0.00,VWS V14.00,2013-02-01 23:11:00,
2013-02-01 18:13:00,29.5,-6.6,30.09,WSW,248,6.0,13.2,20,0.00,,---,0.00,VWS V14.00,2013-02-01 23:13:00,
2013-02-01 18:14:00,29.5,-6.6,30.09,West,270,12.8,14.3,20,0.00,,---,0.00,VWS V14.00,2013-02-01 23:14:00,
2013-02-01 18:15:00,29.3,-6.8,30.09,NW,315,10.1,12.8,20,0.00,,---,0.00,VWS V14.00,2013-02-01 23:15:00,
2013-02-01 18:20:00,29.3,-6.8,30.09,WNW,292,8.1,8.5,20,0.00,,---,0.00,VWS V14.00,2013-02-01 23:20:00,
2013-02-01 18:21:00,29.1,-6.9,30.09,West,270,5.6,8.1,20,0.00,,---,0.00,VWS V14.00,2013-02-01 23:21:00,
2013-02-01 18:24:00,29.1,-6.9,30.09,WNW,292,5.8,8.5,20,0.00,,---,0.00,VWS V14.00,2013-02-01 23:24:00,
2013-02-01 18:25:00,29.1,-6.9,30.09,NW,315,9.8,13.0,20,0.00,,---,0.00,VWS V14.00,2013-02-01 23:25:00,
2013-02-01 18:26:00,29.1,-6.9,30.09,West,270,10.5,10.5,20,0.00,,---,0.00,VWS V14.00,2013-02-01 23:26:00,
2013-02-01 18:30:00,28.9,-7.1,30.09,WNW,292,15.4,15.4,20,0.00,,---,0.00,VWS V14.00,2013-02-01 23:30:00,
2013-02-01 18:32:00,28.9,-7.1,30.09,NW,315,9.2,13.2,20,0.00,,---,0.00,VWS V14.00,2013-02-01 23:32:00,
2013-02-01 18:36:00,28.8,-7.2,30.15,NNW,338,6.3,12.3,20,0.00,,---,0.00,VWS V14.00,2013-02-01 23:36:00,
2013-02-01 18:37:00,28.8,-7.2,30.15,NW,315,7.6,7.8,20,0.00,,---,0.00,VWS V14.00,2013-02-01 23:37:00,
2013-02-01 18:38:00,28.8,-7.2,30.15,North,0,13.2,14.1,20,0.00,,---,0.00,VWS V14.00,2013-02-01 23:38:00,
2013-02-01 18:39:00,28.8,-7.2,30.15,NNW,338,4.9,13.2,20,0.00,,---,0.00,VWS V14.00,2013-02-01 23:39:00,
2013-02-01 18:42:00,28.8,-7.2,30.15,WNW,292,11.0,19.2,20,0.00,,---,0.00,VWS V14.00,2013-02-01 23:42:00,
2013-02-01 18:43:00,28.8,-7.2,30.15,WNW,292,7.4,11.0,20,0.00,,---,0.00,VWS V14.00,2013-02-01 23:43:00,
2013-02-01 18:45:00,28.8,-7.2,30.15,WNW,292,10.7,22.4,20,0.00,,---,0.00,VWS V14.00,2013-02-01 23:45:00,
2013-02-01 18:48:00,28.8,-7.2,30.15,WNW,292,14.8,14.8,20,0.00,,---,0.00,VWS V14.00,2013-02-01 23:48:00,
2013-02-01 18:50:00,28.8,-7.2,30.15,WNW,292,11.9,17.7,20,0.00,,---,0.00,VWS V14.00,2013-02-01 23:50:00,
2013-02-01 18:51:00,28.8,-7.2,30.15,WNW,292,10.5,11.9,20,0.00,,---,0.00,VWS V14.00,2013-02-01 23:51:00,
2013-02-01 18:56:00,28.6,-7.4,30.15,WSW,248,10.7,11.0,20,0.00,,---,0.00,VWS V14.00,2013-02-01 23:56:00,
2013-02-01 18:57:00,28.6,-7.4,30.15,West,270,9.6,10.7,20,0.00,,---,0.00,VWS V14.00,2013-02-01 23:57:00,
2013-02-01 18:59:00,28.6,-7.4,30.15,NW,315,7.4,7.8,20,0.00,,---,0.00,VWS V14.00,2013-02-01 23:59:00,
2013-02-01 19:02:00,32.0,0.0,15.59,NW,315,9.8,804.9,0,0.35,,---,56.32,VWS V14.00,2013-02-02 00:02:00,
2013-02-01 19:07:00,28.6,-7.4,30.15,WNW,292,10.3,10.3,20,0.35,,---,56.32,VWS V14.00,2013-02-02 00:07:00,
2013-02-01 19:08:00,28.6,-7.4,30.15,WNW,292,6.5,12.8,20,0.35,,---,56.32,VWS V14.00,2013-02-02 00:08:00,
2013-02-01 19:12:00,28.6,-7.4,30.15,WNW,292,10.1,10.1,20,0.35,,---,56.32,VWS V14.00,2013-02-02 00:12:00,
2013-02-01 19:13:00,28.6,-7.4,30.15,WNW,292,10.7,13.2,20,0.35,,---,56.32,VWS V14.00,2013-02-02 00:13:00,
2013-02-01 19:15:00,28.6,-7.4,30.15,West,270,8.7,12.1,20,0.35,,---,56.32,VWS V14.00,2013-02-02 00:15:00,
2013-02-01 19:17:00,28.6,-7.4,30.15,NW,315,5.4,10.1,20,0.35,,---,56.32,VWS V14.00,2013-02-02 00:17:00,
2013-02-01 19:19:00,28.6,-7.4,30.15,WSW,248,7.6,10.1,20,0.35,,---,56.32,VWS V14.00,2013-02-02 00:19:00,
2013-02-01 19:25:00,28.4,-6.5,30.15,NW,315,9.4,15.2,21,0.35,,---,56.32,VWS V14.00,2013-02-02 00:25:00,
2013-02-01 19:27:00,28.4,-6.5,30.15,NW,315,6.3,7.6,21,0.35,,---,56.32,VWS V14.00,2013-02-02 00:27:00,
2013-02-01 19:29:00,28.4,-6.5,30.15,WSW,248,4.9,10.3,21,0.35,,---,56.32,VWS V14.00,2013-02-02 00:29:00,
2013-02-01 19:33:00,28.2,-6.7,30.15,NW,315,10.3,10.3,21,0.35,,---,56.32,VWS V14.00,2013-02-02 00:33:00,
2013-02-01 19:34:00,28.2,-6.7,30.15,West,270,10.5,10.5,21,0.35,,---,56.32,VWS V14.00,2013-02-02 00:34:00,
2013-02-01 19:36:00,28.2,-6.7,30.15,South,180,4.9,6.0,21,0.35,,---,56.32,VWS V14.00,2013-02-02 00:36:00,
2013-02-01 19:37:00,28.0,-6.8,30.15,West,270,5.4,8.7,21,0.35,,---,56.32,VWS V14.00,2013-02-02 00:37:00,
2013-02-01 19:41:00,28.0,-6.8,30.15,WNW,292,10.5,13.6,21,0.35,,---,56.32,VWS V14.00,2013-02-02 00:41:00,
2013-02-01 19:45:00,27.9,-7.0,30.15,West,270,4.9,5.6,21,0.35,,---,56.32,VWS V14.00,2013-02-02 00:45:00,
2013-02-01 19:47:00,27.9,-7.0,30.15,WNW,292,2.9,6.0,21,0.35,,---,56.32,VWS V14.00,2013-02-02 00:47:00,
2013-02-01 19:50:00,27.9,-7.0,30.15,WNW,292,6.7,7.4,21,0.35,,---,56.32,VWS V14.00,2013-02-02 00:50:00,
2013-02-01 19:51:00,27.9,-7.0,30.15,West,270,13.2,13.2,21,0.35,,---,56.32,VWS V14.00,2013-02-02 00:51:00,
2013-02-01 19:56:00,27.7,-7.2,30.15,West,270,3.6,8.7,21,0.35,,---,56.32,VWS V14.00,2013-02-02 00:56:00,
2013-02-01 19:57:00,27.7,-7.2,30.15,WNW,292,4.9,9.8,21,0.35,,---,56.32,VWS V14.00,2013-02-02 00:57:00,
2013-02-01 19:59:00,27.5,-7.3,30.15,West,270,7.6,7.6,21,0.35,,---,56.32,VWS V14.00,2013-02-02 00:59:00,
2013-02-01 20:02:00,27.5,-7.3,30.15,West,270,7.8,10.1,21,0.35,,---,56.32,VWS V14.00,2013-02-02 01:02:00,
2013-02-01 20:03:00,27.5,-7.3,30.15,WSW,248,10.5,10.5,21,0.35,,---,56.32,VWS V14.00,2013-02-02 01:03:00,
2013-02-01 20:06:00,27.5,-7.3,30.18,West,270,5.4,9.4,21,0.35,,---,56.32,VWS V14.00,2013-02-02 01:06:00,
2013-02-01 20:07:00,27.5,-7.3,30.18,WNW,292,5.6,10.5,21,0.35,,---,56.32,VWS V14.00,2013-02-02 01:07:00,
2013-02-01 20:10:00,27.3,-7.4,30.18,NW,315,7.4,14.1,21,0.35,,---,56.32,VWS V14.00,2013-02-02 01:10:00,
2013-02-01 20:12:00,27.3,-7.4,30.18,West,270,6.0,6.3,21,0.35,,---,56.32,VWS V14.00,2013-02-02 01:12:00,
2013-02-01 20:15:00,27.3,-7.4,30.18,WNW,292,5.8,7.6,21,0.35,,---,56.32,VWS V14.00,2013-02-02 01:15:00,
2013-02-01 20:18:00,27.3,-7.4,30.18,West,270,3.4,8.7,21,0.35,,---,56.32,VWS V14.00,2013-02-02 01:18:00,
2013-02-01 20:20:00,27.3,-7.4,30.18,WNW,292,5.8,9.6,21,0.35,,---,56.32,VWS V14.00,2013-02-02 01:20:00,
2013-02-01 20:22:00,27.3,-7.4,30.18,West,270,6.0,12.3,21,0.35,,---,56.32,VWS V14.00,2013-02-02 01:22:00,
2013-02-01 20:26:00,27.1,-7.6,30.18,WNW,292,0.9,4.7,21,0.35,,---,56.32,VWS V14.00,2013-02-02 01:26:00,
2013-02-01 20:27:00,27.1,-7.6,30.18,West,270,4.3,6.3,21,0.35,,---,56.32,VWS V14.00,2013-02-02 01:27:00,
2013-02-01 20:28:00,27.3,-7.4,30.18,WNW,292,5.8,10.3,21,0.35,,---,56.32,VWS V14.00,2013-02-02 01:28:00,
2013-02-01 20:31:00,27.1,-7.6,30.18,WNW,292,5.8,10.7,21,0.35,,---,56.32,VWS V14.00,2013-02-02 01:31:00,
2013-02-01 20:33:00,27.1,-7.6,30.18,WSW,248,2.7,13.0,21,0.35,,---,56.32,VWS V14.00,2013-02-02 01:33:00,
2013-02-01 20:36:00,27.1,-7.6,30.18,West,270,8.1,10.5,21,0.35,,---,56.32,VWS V14.00,2013-02-02 01:36:00,
2013-02-01 20:37:00,27.1,-7.6,30.18,West,270,7.8,8.1,21,0.35,,---,56.32,VWS V14.00,2013-02-02 01:37:00,
2013-02-01 20:42:00,27.1,-7.6,30.18,WSW,248,7.8,11.4,21,0.35,,---,56.32,VWS V14.00,2013-02-02 01:42:00,
2013-02-01 20:43:00,27.0,-7.8,30.18,West,270,8.7,10.3,21,0.35,,---,56.32,VWS V14.00,2013-02-02 01:43:00,
2013-02-01 20:44:00,27.0,-7.8,30.18,WSW,248,4.0,11.0,21,0.35,,---,56.32,VWS V14.00,2013-02-02 01:44:00,
2013-02-01 20:47:00,27.0,-7.8,30.18,WNW,292,13.0,13.0,21,0.35,,---,56.32,VWS V14.00,2013-02-02 01:47:00,
2013-02-01 20:48:00,27.0,-7.8,30.18,WNW,292,6.7,13.0,21,0.35,,---,56.32,VWS V14.00,2013-02-02 01:48:00,
2013-02-01 20:49:00,27.0,-7.8,30.18,WSW,248,14.5,14.5,21,0.35,,---,56.32,VWS V14.00,2013-02-02 01:49:00,
2013-02-01 20:53:00,27.0,-7.8,30.21,WSW,248,7.8,13.0,21,0.35,,---,56.32,VWS V14.00,2013-02-02 01:53:00,
2013-02-01 20:55:00,27.0,-7.8,30.21,WNW,292,5.6,10.7,21,0.35,,---,56.32,VWS V14.00,2013-02-02 01:55:00,
2013-02-01 20:57:00,27.0,-7.8,30.21,West,270,10.7,11.0,21,0.35,,---,56.32,VWS V14.00,2013-02-02 01:57:00,
2013-02-01 20:58:00,27.0,-7.8,30.21,WNW,292,6.9,14.5,21,0.35,,---,56.32,VWS V14.00,2013-02-02 01:58:00,
2013-02-01 21:00:00,27.0,-7.8,30.21,West,270,8.1,8.5,21,0.35,,---,56.32,VWS V14.00,2013-02-02 02:00:00,
2013-02-01 21:01:00,26.8,-7.9,30.21,West,270,2.5,8.1,21,0.35,,---,56.32,VWS V14.00,2013-02-02 02:01:00,
2013-02-01 21:03:00,26.6,-8.1,30.21,West,270,7.6,7.6,21,0.35,,---,56.32,VWS V14.00,2013-02-02 02:03:00,
2013-02-01 21:07:00,26.4,-8.2,30.21,West,270,5.8,10.5,21,0.35,,---,56.32,VWS V14.00,2013-02-02 02:07:00,
2013-02-01 21:09:00,26.2,-8.4,30.21,WNW,292,10.5,10.5,21,0.35,,---,56.32,VWS V14.00,2013-02-02 02:09:00,
2013-02-01 21:11:00,26.2,-8.4,30.21,WNW,292,6.5,8.1,21,0.35,,---,56.32,VWS V14.00,2013-02-02 02:11:00,
2013-02-01 21:12:00,26.2,-8.4,30.21,West,270,8.5,8.7,21,0.35,,---,56.32,VWS V14.00,2013-02-02 02:12:00,
2013-02-01 21:17:00,26.1,-8.5,30.21,WSW,248,6.5,9.8,21,0.35,,---,56.32,VWS V14.00,2013-02-02 02:17:00,
2013-02-01 21:20:00,26.1,-8.5,30.21,West,270,5.6,10.1,21,0.35,,---,56.32,VWS V14.00,2013-02-02 02:20:00,
2013-02-01 21:25:00,26.1,-8.5,30.21,West,270,5.8,10.7,21,0.35,,---,56.32,VWS V14.00,2013-02-02 02:25:00,
2013-02-01 21:26:00,26.1,-8.5,30.21,WSW,248,6.7,6.7,21,0.35,,---,56.32,VWS V14.00,2013-02-02 02:26:00,
2013-02-01 21:27:00,25.9,-8.7,30.21,WNW,292,8.5,8.5,21,0.35,,---,56.32,VWS V14.00,2013-02-02 02:27:00,
2013-02-01 21:28:00,25.9,-8.7,30.21,WSW,248,5.8,8.5,21,0.35,,---,56.32,VWS V14.00,2013-02-02 02:28:00,
2013-02-01 21:30:00,25.9,-8.7,30.21,WNW,292,6.5,8.1,21,0.35,,---,56.32,VWS V14.00,2013-02-02 02:30:00,
2013-02-01 21:32:00,25.9,-8.7,30.21,West,270,6.3,11.0,21,0.35,,---,56.32,VWS V14.00,2013-02-02 02:32:00,
2013-02-01 21:33:00,25.9,-8.7,30.21,WSW,248,12.5,12.5,21,0.35,,---,56.32,VWS V14.00,2013-02-02 02:33:00,
2013-02-01 21:36:00,25.9,-8.7,30.21,WSW,248,4.3,5.6,21,0.35,,---,56.32,VWS V14.00,2013-02-02 02:36:00,
2013-02-01 21:37:00,25.9,-8.7,30.21,West,270,4.0,5.6,21,0.35,,---,56.32,VWS V14.00,2013-02-02 02:37:00,
2013-02-01 21:42:00,25.9,-8.7,30.21,WNW,292,10.3,13.2,21,0.35,,---,56.32,VWS V14.00,2013-02-02 02:42:00,
2013-02-01 21:43:00,25.9,-8.7,30.21,WNW,292,7.8,10.3,21,0.35,,---,56.32,VWS V14.00,2013-02-02 02:43:00,
2013-02-01 21:44:00,25.9,-8.7,30.21,WNW,292,12.3,12.3,21,0.35,,---,56.32,VWS V14.00,2013-02-02 02:44:00,
2013-02-01 21:49:00,25.9,-8.7,30.21,WNW,292,6.3,11.4,21,0.35,,---,56.32,VWS V14.00,2013-02-02 02:49:00,
2013-02-01 21:51:00,26.1,-8.5,30.21,WNW,292,12.3,15.4,21,0.35,,---,56.32,VWS V14.00,2013-02-02 02:51:00,
2013-02-01 21:54:00,25.9,-8.7,30.21,WNW,292,7.4,8.1,21,0.35,,---,56.32,VWS V14.00,2013-02-02 02:54:00,
2013-02-01 21:55:00,25.9,-8.7,30.21,West,270,8.5,8.5,21,0.35,,---,56.32,VWS V14.00,2013-02-02 02:55:00,
2013-02-01 21:59:00,25.9,-8.7,30.21,WSW,248,7.6,7.6,21,0.35,,---,56.32,VWS V14.00,2013-02-02 02:59:00,
2013-02-01 22:00:00,25.9,-8.7,30.21,West,270,3.6,11.2,21,0.35,,---,56.32,VWS V14.00,2013-02-02 03:00:00,
2013-02-01 22:02:00,25.7,-8.8,30.21,WNW,292,12.3,14.8,21,0.35,,---,56.32,VWS V14.00,2013-02-02 03:02:00,
2013-02-01 22:04:00,25.7,-8.8,30.21,West,270,8.1,15.9,21,0.35,,---,56.32,VWS V14.00,2013-02-02 03:04:00,
2013-02-01 22:06:00,25.9,-8.7,30.24,WNW,292,10.1,11.2,21,0.35,,---,56.32,VWS V14.00,2013-02-02 03:06:00,
2013-02-01 22:07:00,25.7,-8.8,30.24,WNW,292,12.8,14.8,21,0.35,,---,56.32,VWS V14.00,2013-02-02 03:07:00,
2013-02-01 22:09:00,25.7,-8.8,30.24,WNW,292,6.0,11.0,21,0.35,,---,56.32,VWS V14.00,2013-02-02 03:09:00,
2013-02-01 22:10:00,25.7,-8.8,30.24,WSW,248,6.5,6.5,21,0.35,,---,56.32,VWS V14.00,2013-02-02 03:10:00,
2013-02-01 22:13:00,25.5,-9.0,30.24,West,270,4.3,4.3,21,0.35,,---,56.32,VWS V14.00,2013-02-02 03:13:00,
2013-02-01 22:16:00,25.3,-9.1,30.24,WNW,292,4.9,13.2,21,0.35,,---,56.32,VWS V14.00,2013-02-02 03:16:00,
2013-02-01 22:18:00,25.3,-9.1,30.24,WNW,292,3.8,5.8,21,0.35,,---,56.32,VWS V14.00,2013-02-02 03:18:00,
2013-02-01 22:20:00,25.3,-9.1,30.24,WNW,292,4.9,6.0,21,0.35,,---,56.32,VWS V14.00,2013-02-02 03:20:00,
2013-02-01 22:21:00,25.3,-9.1,30.24,WNW,292,8.1,10.5,21,0.35,,---,56.32,VWS V14.00,2013-02-02 03:21:00,
2013-02-01 22:23:00,25.3,-9.1,30.24,WNW,292,8.7,8.7,21,0.35,,---,56.32,VWS V14.00,2013-02-02 03:23:00,
2013-02-01 22:26:00,25.3,-9.1,30.24,NNW,338,4.9,6.5,21,0.35,,---,56.32,VWS V14.00,2013-02-02 03:26:00,
2013-02-01 22:28:00,25.3,-9.1,30.24,West,270,4.0,4.0,21,0.35,,---,56.32,VWS V14.00,2013-02-02 03:28:00,
2013-02-01 22:31:00,25.3,-9.1,30.24,WNW,292,2.9,4.0,21,0.35,,---,56.32,VWS V14.00,2013-02-02 03:31:00,
2013-02-01 22:33:00,25.2,-9.3,30.24,WNW,292,6.5,9.8,21,0.35,,---,56.32,VWS V14.00,2013-02-02 03:33:00,
2013-02-01 22:35:00,25.2,-9.3,30.24,WNW,292,3.1,7.6,21,0.35,,---,56.32,VWS V14.00,2013-02-02 03:35:00,
2013-02-01 22:36:00,25.2,-9.3,30.21,NW,315,3.4,4.0,21,0.35,,---,56.32,VWS V14.00,2013-02-02 03:36:00,
2013-02-01 22:39:00,25.2,-9.3,30.21,WNW,292,10.5,12.5,21,0.35,,---,56.32,VWS V14.00,2013-02-02 03:39:00,
2013-02-01 22:42:00,25.2,-9.3,30.21,WNW,292,8.1,8.1,21,0.35,,---,56.32,VWS V14.00,2013-02-02 03:42:00,
2013-02-01 22:43:00,25.2,-9.3,30.21,WNW,292,6.9,8.7,21,0.35,,---,56.32,VWS V14.00,2013-02-02 03:43:00,
2013-02-01 22:44:00,25.0,-9.4,30.21,WNW,292,3.6,6.9,21,0.35,,---,56.32,VWS V14.00,2013-02-02 03:44:00,
2013-02-01 22:47:00,25.0,-9.4,30.21,West,270,4.9,6.5,21,0.35,,---,56.32,VWS V14.00,2013-02-02 03:47:00,
2013-02-01 22:51:00,25.0,-9.4,30.24,West,270,5.4,12.1,21,0.35,,---,56.32,VWS V14.00,2013-02-02 03:51:00,
2013-02-01 22:52:00,25.0,-9.4,30.24,West,270,4.0,6.3,21,0.35,,---,56.32,VWS V14.00,2013-02-02 03:52:00,
2013-02-01 22:56:00,24.8,-8.6,30.24,WNW,292,3.6,5.8,22,0.35,,---,56.32,VWS V14.00,2013-02-02 03:56:00,
2013-02-01 22:58:00,24.8,-8.6,30.24,WNW,292,8.1,12.8,22,0.35,,---,56.32,VWS V14.00,2013-02-02 03:58:00,
2013-02-01 23:01:00,24.6,-8.8,30.24,West,270,6.3,6.3,22,0.35,,---,56.32,VWS V14.00,2013-02-02 04:01:00,
2013-02-01 23:02:00,24.6,-8.8,30.24,West,270,6.3,9.2,22,0.35,,---,56.32,VWS V14.00,2013-02-02 04:02:00,
2013-02-01 23:04:00,24.6,-8.8,30.24,WNW,292,7.2,7.2,22,0.35,,---,56.32,VWS V14.00,2013-02-02 04:04:00,
2013-02-01 23:08:00,24.4,-8.9,30.24,WSW,248,3.6,4.9,22,0.35,,---,56.32,VWS V14.00,2013-02-02 04:08:00,
2013-02-01 23:10:00,24.4,-8.9,30.24,West,270,4.9,8.5,22,0.35,,---,56.32,VWS V14.00,2013-02-02 04:10:00,
2013-02-01 23:11:00,24.4,-8.9,30.24,West,270,5.4,7.4,22,0.35,,---,56.32,VWS V14.00,2013-02-02 04:11:00,
2013-02-01 23:13:00,24.4,-8.9,30.24,West,270,4.7,8.7,22,0.35,,---,56.32,VWS V14.00,2013-02-02 04:13:00,
2013-02-01 23:16:00,24.3,-9.1,30.24,West,270,13.2,13.2,22,0.35,,---,56.32,VWS V14.00,2013-02-02 04:16:00,
2013-02-01 23:17:00,24.3,-9.1,30.24,West,270,10.5,13.2,22,0.35,,---,56.32,VWS V14.00,2013-02-02 04:17:00,
2013-02-01 23:18:00,24.4,-8.9,30.24,WNW,292,6.0,10.5,22,0.35,,---,56.32,VWS V14.00,2013-02-02 04:18:00,
2013-02-01 23:22:00,24.3,-9.1,30.27,WNW,292,6.3,13.2,22,0.35,,---,56.32,VWS V14.00,2013-02-02 04:22:00,
2013-02-01 23:24:00,24.4,-8.9,30.27,West,270,7.6,7.6,22,0.35,,---,56.32,VWS V14.00,2013-02-02 04:24:00,
2013-02-01 23:27:00,24.4,-8.9,30.27,West,270,8.5,8.5,22,0.35,,---,56.32,VWS V14.00,2013-02-02 04:27:00,
2013-02-01 23:29:00,24.3,-9.1,30.27,WNW,292,7.6,14.5,22,0.35,,---,56.32,VWS V14.00,2013-02-02 04:29:00,
2013-02-01 23:30:00,24.4,-8.9,30.27,West,270,8.1,11.0,22,0.35,,---,56.32,VWS V14.00,2013-02-02 04:30:00,
2013-02-01 23:31:00,24.3,-9.1,30.27,WNW,292,9.8,9.8,22,0.35,,---,56.32,VWS V14.00,2013-02-02 04:31:00,
2013-02-01 23:35:00,24.3,-9.1,30.27,West,270,10.5,10.5,22,0.35,,---,56.32,VWS V14.00,2013-02-02 04:35:00,
2013-02-01 23:36:00,24.3,-9.1,30.24,WSW,248,5.8,10.5,22,0.35,,---,56.32,VWS V14.00,2013-02-02 04:36:00,
2013-02-01 23:37:00,24.3,-9.1,30.24,West,270,7.6,7.6,22,0.35,,---,56.32,VWS V14.00,2013-02-02 04:37:00,
2013-02-01 23:39:00,24.1,-9.2,30.24,WSW,248,7.6,7.8,22,0.35,,---,56.32,VWS V14.00,2013-02-02 04:39:00,
2013-02-01 23:41:00,24.1,-9.2,30.24,West,270,5.8,7.8,22,0.35,,---,56.32,VWS V14.00,2013-02-02 04:41:00,
2013-02-01 23:42:00,23.9,-9.4,30.24,WSW,248,5.4,6.5,22,0.35,,---,56.32,VWS V14.00,2013-02-02 04:42:00,
2013-02-01 23:43:00,23.9,-9.4,30.24,West,270,10.1,10.3,22,0.35,,---,56.32,VWS V14.00,2013-02-02 04:43:00,
2013-02-01 23:47:00,23.9,-9.4,30.24,West,270,5.4,10.3,22,0.35,,---,56.32,VWS V14.00,2013-02-02 04:47:00,
2013-02-01 23:48:00,23.9,-9.4,30.24,WNW,292,10.5,10.5,22,0.35,,---,56.32,VWS V14.00,2013-02-02 04:48:00,
2013-02-01 23:49:00,23.9,-9.4,30.24,WNW,292,1.6,10.5,22,0.35,,---,56.32,VWS V14.00,2013-02-02 04:49:00,
2013-02-01 23:50:00,23.9,-9.4,30.24,WNW,292,8.5,8.5,22,0.35,,---,56.32,VWS V14.00,2013-02-02 04:50:00,
2013-02-01 23:54:00,23.7,-9.6,30.24,WNW,292,10.5,10.5,22,0.35,,---,56.32,VWS V14.00,2013-02-02 04:54:00,
2013-02-01 23:55:00,23.7,-9.6,30.24,West,270,6.5,10.5,22,0.35,,---,56.32,VWS V14.00,2013-02-02 04:55:00,
2013-02-01 23:56:00,23.7,-9.6,30.24,West,270,6.3,10.1,22,0.35,,---,56.32,VWS V14.00,2013-02-02 04:56:00,
2013-02-01 23:57:00,23.7,-9.6,30.24,West,270,5.6,6.5,22,0.35,,---,56.32,VWS V14.00,2013-02-02 04:57:00,
2013-02-01 23:59:00,23.7,-9.6,30.24,WSW,248,7.4,7.4,22,0.35,,---,0.00,VWS V14.00,2013-02-02 04:59:00,